Time,TemperatureF,DewpointF,PressureIn,WindDirection,WindDirectionDegrees,WindSpeedMPH,WindSpeedGustMPH,Humidity,HourlyPrecipIn,Conditions,Clouds,dailyrainin,SoftwareType,DateUTC
2013-06-26 00:00:00,50.2,42.2,29.76,SE,145,3.0,31.0,74,0.00,,---,0.00,VWS V12.07,2013-06-26 07:00:00,
2013-06-26 00:02:00,50.1,42.2,29.76,SE,145,1.0,31.0,74,0.00,,---,0.00,VWS V12.07,2013-06-26 07:02:00,
2013-06-26 00:04:00,50.1,42.2,29.76,SE,145,1.0,31.0,74,0.00,,---,0.00,VWS V12.07,2013-06-26 07:04:00,
2013-06-26 00:05:00,49.9,41.6,29.76,SE,145,0.0,31.0,73,0.00,,---,0.00,VWS V12.07,2013-06-26 07:05:00,
2013-06-26 00:07:00,49.9,41.6,29.76,SE,145,0.0,31.0,73,0.00,,---,0.00,VWS V12.07,2013-06-26 07:07:00,
2013-06-26 00:09:00,50.1,41.8,29.76,SE,145,0.0,31.0,73,0.00,,---,0.00,VWS V12.07,2013-06-26 07:09:00,
2013-06-26 00:10:00,50.1,41.8,29.76,SE,145,0.0,31.0,73,0.00,,---,0.00,VWS V12.07,2013-06-26 07:10:00,
2013-06-26 00:11:00,50.1,41.8,29.76,SE,145,0.0,31.0,73,0.00,,---,0.00,VWS V12.07,2013-06-26 07:11:00,
2013-06-26 00:12:00,50.1,41.4,29.76,SE,145,0.0,31.0,72,0.00,,---,0.00,VWS V12.07,2013-06-26 07:12:00,
2013-06-26 00:14:00,50.2,41.5,29.77,SE,145,0.0,31.0,72,0.00,,---,0.00,VWS V12.07,2013-06-26 07:14:00,
2013-06-26 00:15:00,50.4,41.7,29.77,SE,145,0.0,31.0,72,0.00,,---,0.00,VWS V12.07,2013-06-26 07:15:00,
2013-06-26 00:16:00,50.5,41.8,29.77,SE,145,0.0,31.0,72,0.00,,---,0.00,VWS V12.07,2013-06-26 07:16:00,
2013-06-26 00:17:00,50.5,41.8,29.77,SE,145,0.0,31.0,72,0.00,,---,0.00,VWS V12.07,2013-06-26 07:17:00,
2013-06-26 00:19:00,50.5,41.8,29.77,SE,145,0.0,31.0,72,0.00,,---,0.00,VWS V12.07,2013-06-26 07:19:00,
2013-06-26 00:20:00,50.5,41.8,29.77,SE,145,0.0,0.0,72,0.00,,---,0.00,VWS V12.07,2013-06-26 07:20:00,
2013-06-26 00:21:00,50.5,41.8,29.77,SE,145,0.0,31.0,72,0.00,,---,0.00,VWS V12.07,2013-06-26 07:21:00,
2013-06-26 00:22:00,50.4,41.7,29.77,SE,145,0.0,31.0,72,0.00,,---,0.00,VWS V12.07,2013-06-26 07:22:00,
2013-06-26 00:24:00,50.4,41.7,29.77,SE,145,0.0,31.0,72,0.00,,---,0.00,VWS V12.07,2013-06-26 07:24:00,
2013-06-26 00:26:00,50.4,42.1,29.77,SE,145,0.0,31.0,73,0.00,,---,0.00,VWS V12.07,2013-06-26 07:26:00,
2013-06-26 00:27:00,50.4,42.1,29.77,SE,145,0.0,31.0,73,0.00,,---,0.00,VWS V12.07,2013-06-26 07:27:00,
2013-06-26 00:29:00,50.2,41.9,29.77,SE,145,0.0,31.0,73,0.00,,---,0.00,VWS V12.07,2013-06-26 07:29:00,
2013-06-26 00:30:00,50.2,41.9,29.78,SE,145,0.0,31.0,73,0.00,,---,0.00,VWS V12.07,2013-06-26 07:30:00,
2013-06-26 00:31:00,50.1,41.8,29.78,SE,145,0.0,31.0,73,0.00,,---,0.00,VWS V12.07,2013-06-26 07:31:00,
2013-06-26 00:32:00,50.1,41.8,29.78,SE,145,0.0,31.0,73,0.00,,---,0.00,VWS V12.07,2013-06-26 07:32:00,
2013-06-26 00:35:00,49.9,41.6,29.78,SE,145,0.0,31.0,73,0.00,,---,0.00,VWS V12.07,2013-06-26 07:35:00,
2013-06-26 00:36:00,49.9,41.6,29.78,SE,145,0.0,31.0,73,0.00,,---,0.00,VWS V12.07,2013-06-26 07:36:00,
2013-06-26 00:37:00,49.9,41.6,29.78,SE,145,0.0,31.0,73,0.00,,---,0.00,VWS V12.07,2013-06-26 07:37:00,
2013-06-26 00:40:00,49.8,41.5,29.78,SE,145,0.0,31.0,73,0.00,,---,0.00,VWS V12.07,2013-06-26 07:40:00,
2013-06-26 00:41:00,49.8,41.9,29.78,SE,145,0.0,31.0,74,0.00,,---,0.00,VWS V12.07,2013-06-26 07:41:00,
2013-06-26 00:42:00,49.8,41.9,29.78,SE,145,0.0,31.0,74,0.00,,---,0.00,VWS V12.07,2013-06-26 07:42:00,
2013-06-26 00:43:00,49.8,41.9,29.78,SE,145,0.0,31.0,74,0.00,,---,0.00,VWS V12.07,2013-06-26 07:43:00,
2013-06-26 00:45:00,49.6,41.7,29.77,SE,145,0.0,31.0,74,0.00,,---,0.00,VWS V12.07,2013-06-26 07:45:00,
2013-06-26 00:47:00,49.6,41.7,29.77,SE,145,0.0,31.0,74,0.00,,---,0.00,VWS V12.07,2013-06-26 07:47:00,
2013-06-26 00:48:00,49.6,41.7,29.77,SE,145,0.0,31.0,74,0.00,,---,0.00,VWS V12.07,2013-06-26 07:48:00,
2013-06-26 00:50:00,49.6,41.7,29.77,SE,145,0.0,31.0,74,0.00,,---,0.00,VWS V12.07,2013-06-26 07:50:00,
2013-06-26 00:52:00,49.6,41.7,29.77,SE,145,0.0,31.0,74,0.00,,---,0.00,VWS V12.07,2013-06-26 07:52:00,
2013-06-26 00:53:00,49.5,41.6,29.77,SE,145,0.0,31.0,74,0.00,,---,0.00,VWS V12.07,2013-06-26 07:53:00,
2013-06-26 00:57:00,49.5,41.6,29.77,SE,145,0.0,31.0,74,0.00,,---,0.00,VWS V12.07,2013-06-26 07:57:00,
2013-06-26 00:58:00,49.4,41.5,29.77,SE,145,0.0,31.0,74,0.00,,---,0.00,VWS V12.07,2013-06-26 07:58:00,
2013-06-26 00:59:00,49.4,41.5,29.77,SE,145,0.0,31.0,74,0.00,,---,0.00,VWS V12.07,2013-06-26 07:59:00,
2013-06-26 01:00:00,49.4,41.5,29.77,SE,145,0.0,0.0,74,0.00,,---,0.00,VWS V12.07,2013-06-26 08:00:00,
2013-06-26 01:02:00,49.2,41.3,29.77,SE,145,0.0,31.0,74,0.00,,---,0.00,VWS V12.07,2013-06-26 08:02:00,
2013-06-26 01:03:00,49.2,41.3,29.77,SE,145,0.0,31.0,74,0.00,,---,0.00,VWS V12.07,2013-06-26 08:03:00,
2013-06-26 01:04:00,49.2,41.3,29.77,SE,145,0.0,31.0,74,0.00,,---,0.00,VWS V12.07,2013-06-26 08:04:00,
2013-06-26 01:07:00,49.1,41.5,29.77,SE,145,0.0,31.0,75,0.00,,---,0.00,VWS V12.07,2013-06-26 08:07:00,
2013-06-26 01:08:00,49.1,41.5,29.77,SE,145,0.0,31.0,75,0.00,,---,0.00,VWS V12.07,2013-06-26 08:08:00,
2013-06-26 01:09:00,48.9,41.3,29.77,SE,145,0.0,31.0,75,0.00,,---,0.00,VWS V12.07,2013-06-26 08:09:00,
2013-06-26 01:10:00,48.9,41.3,29.77,SE,145,0.0,0.0,75,0.00,,---,0.00,VWS V12.07,2013-06-26 08:10:00,
2013-06-26 01:12:00,48.8,41.2,29.77,SE,145,0.0,31.0,75,0.00,,---,0.00,VWS V12.07,2013-06-26 08:12:00,
2013-06-26 01:13:00,48.8,41.2,29.77,SE,145,0.0,31.0,75,0.00,,---,0.00,VWS V12.07,2013-06-26 08:13:00,
2013-06-26 01:14:00,48.8,41.2,29.80,SE,145,0.0,31.0,75,0.00,,---,0.00,VWS V12.07,2013-06-26 08:14:00,
2013-06-26 01:18:00,48.6,41.0,29.80,SE,145,0.0,31.0,75,0.00,,---,0.00,VWS V12.07,2013-06-26 08:18:00,
2013-06-26 01:19:00,48.6,41.0,29.80,SE,145,0.0,31.0,75,0.00,,---,0.00,VWS V12.07,2013-06-26 08:19:00,
2013-06-26 01:20:00,48.6,41.0,29.80,SE,145,0.0,0.0,75,0.00,,---,0.00,VWS V12.07,2013-06-26 08:20:00,
2013-06-26 01:23:00,48.5,41.0,29.80,SE,145,0.0,31.0,75,0.00,,---,0.00,VWS V12.07,2013-06-26 08:23:00,
2013-06-26 01:24:00,48.5,41.0,29.80,SE,145,0.0,31.0,75,0.00,,---,0.00,VWS V12.07,2013-06-26 08:24:00,
2013-06-26 01:28:00,48.3,40.8,29.80,SE,145,0.0,31.0,75,0.00,,---,0.00,VWS V12.07,2013-06-26 08:28:00,
2013-06-26 01:29:00,48.3,40.8,29.80,SE,145,0.0,31.0,75,0.00,,---,0.00,VWS V12.07,2013-06-26 08:29:00,
2013-06-26 01:30:00,48.3,41.1,29.79,SE,145,0.0,31.0,76,0.00,,---,0.00,VWS V12.07,2013-06-26 08:30:00,
2013-06-26 01:33:00,48.3,41.1,29.79,SE,145,0.0,31.0,76,0.00,,---,0.00,VWS V12.07,2013-06-26 08:33:00,
2013-06-26 01:34:00,48.3,41.1,29.79,SE,145,0.0,31.0,76,0.00,,---,0.00,VWS V12.07,2013-06-26 08:34:00,
2013-06-26 01:35:00,48.3,41.1,29.79,SE,145,0.0,31.0,76,0.00,,---,0.00,VWS V12.07,2013-06-26 08:35:00,
2013-06-26 01:38:00,48.2,41.0,29.79,SE,145,0.0,31.0,76,0.00,,---,0.00,VWS V12.07,2013-06-26 08:38:00,
2013-06-26 01:39:00,48.2,41.0,29.79,SE,145,0.0,31.0,76,0.00,,---,0.00,VWS V12.07,2013-06-26 08:39:00,
2013-06-26 01:40:00,48.2,41.0,29.79,SE,145,0.0,31.0,76,0.00,,---,0.00,VWS V12.07,2013-06-26 08:40:00,
2013-06-26 01:41:00,48.0,40.8,29.79,SE,145,0.0,31.0,76,0.00,,---,0.00,VWS V12.07,2013-06-26 08:41:00,
2013-06-26 01:43:00,48.0,40.8,29.79,SE,145,0.0,31.0,76,0.00,,---,0.00,VWS V12.07,2013-06-26 08:43:00,
2013-06-26 01:44:00,48.0,40.8,29.79,SE,145,0.0,31.0,76,0.00,,---,0.00,VWS V12.07,2013-06-26 08:44:00,
2013-06-26 01:46:00,48.0,40.8,29.79,SE,145,0.0,31.0,76,0.00,,---,0.00,VWS V12.07,2013-06-26 08:46:00,
2013-06-26 01:47:00,48.0,40.8,29.79,SE,145,0.0,31.0,76,0.00,,---,0.00,VWS V12.07,2013-06-26 08:47:00,
2013-06-26 01:48:00,48.0,40.8,29.79,SE,145,0.0,31.0,76,0.00,,---,0.00,VWS V12.07,2013-06-26 08:48:00,
2013-06-26 01:50:00,48.0,40.8,29.79,SE,145,0.0,31.0,76,0.00,,---,0.00,VWS V12.07,2013-06-26 08:50:00,
2013-06-26 01:51:00,47.9,40.7,29.79,SE,145,0.0,31.0,76,0.00,,---,0.00,VWS V12.07,2013-06-26 08:51:00,
2013-06-26 01:52:00,47.9,40.7,29.79,SE,145,0.0,31.0,76,0.00,,---,0.00,VWS V12.07,2013-06-26 08:52:00,
2013-06-26 01:53:00,47.9,40.7,29.79,SE,145,0.0,31.0,76,0.00,,---,0.00,VWS V12.07,2013-06-26 08:53:00,
2013-06-26 01:55:00,47.9,40.7,29.79,SE,145,0.0,31.0,76,0.00,,---,0.00,VWS V12.07,2013-06-26 08:55:00,
2013-06-26 01:56:00,47.9,40.7,29.79,SE,145,0.0,31.0,76,0.00,,---,0.00,VWS V12.07,2013-06-26 08:56:00,
2013-06-26 01:57:00,47.9,40.7,29.79,SE,145,0.0,31.0,76,0.00,,---,0.00,VWS V12.07,2013-06-26 08:57:00,
2013-06-26 01:59:00,47.9,40.7,29.79,SE,145,0.0,31.0,76,0.00,,---,0.00,VWS V12.07,2013-06-26 08:59:00,
2013-06-26 02:00:00,47.7,40.5,29.79,SE,145,0.0,31.0,76,0.00,,---,0.00,VWS V12.07,2013-06-26 09:00:00,
2013-06-26 02:01:00,47.7,40.5,29.79,SE,145,0.0,31.0,76,0.00,,---,0.00,VWS V12.07,2013-06-26 09:01:00,
2013-06-26 02:02:00,47.7,40.5,29.79,SE,145,0.0,31.0,76,0.00,,---,0.00,VWS V12.07,2013-06-26 09:02:00,
2013-06-26 02:04:00,47.7,40.5,29.79,SE,145,0.0,31.0,76,0.00,,---,0.00,VWS V12.07,2013-06-26 09:04:00,
2013-06-26 02:05:00,47.7,40.5,29.79,SE,145,0.0,31.0,76,0.00,,---,0.00,VWS V12.07,2013-06-26 09:05:00,
2013-06-26 02:07:00,47.7,40.5,29.79,SE,145,0.0,31.0,76,0.00,,---,0.00,VWS V12.07,2013-06-26 09:07:00,
2013-06-26 02:09:00,47.6,40.4,29.79,SE,145,0.0,31.0,76,0.00,,---,0.00,VWS V12.07,2013-06-26 09:09:00,
2013-06-26 02:10:00,47.6,40.4,29.79,SE,145,0.0,31.0,76,0.00,,---,0.00,VWS V12.07,2013-06-26 09:10:00,
2013-06-26 02:12:00,47.6,40.4,29.79,SE,145,0.0,31.0,76,0.00,,---,0.00,VWS V12.07,2013-06-26 09:12:00,
2013-06-26 02:13:00,47.6,40.4,29.79,SE,145,0.0,31.0,76,0.00,,---,0.00,VWS V12.07,2013-06-26 09:13:00,
2013-06-26 02:14:00,47.4,40.2,29.80,SE,145,0.0,31.0,76,0.00,,---,0.00,VWS V12.07,2013-06-26 09:14:00,
2013-06-26 02:15:00,47.4,40.2,29.80,SE,145,0.0,31.0,76,0.00,,---,0.00,VWS V12.07,2013-06-26 09:15:00,
2013-06-26 02:17:00,47.4,40.2,29.80,SE,145,0.0,31.0,76,0.00,,---,0.00,VWS V12.07,2013-06-26 09:17:00,
2013-06-26 02:18:00,47.4,40.2,29.80,SE,145,0.0,31.0,76,0.00,,---,0.00,VWS V12.07,2013-06-26 09:18:00,
2013-06-26 02:19:00,47.4,40.2,29.80,SE,145,0.0,31.0,76,0.00,,---,0.00,VWS V12.07,2013-06-26 09:19:00,
2013-06-26 02:20:00,47.4,40.2,29.80,SE,145,0.0,31.0,76,0.00,,---,0.00,VWS V12.07,2013-06-26 09:20:00,
2013-06-26 02:23:00,47.3,40.1,29.80,SE,145,0.0,31.0,76,0.00,,---,0.00,VWS V12.07,2013-06-26 09:23:00,
2013-06-26 02:25:00,47.3,40.1,29.80,SE,145,0.0,31.0,76,0.00,,---,0.00,VWS V12.07,2013-06-26 09:25:00,
2013-06-26 02:26:00,47.3,40.1,29.80,SE,145,0.0,31.0,76,0.00,,---,0.00,VWS V12.07,2013-06-26 09:26:00,
2013-06-26 02:28:00,47.3,40.1,29.80,SE,145,0.0,31.0,76,0.00,,---,0.00,VWS V12.07,2013-06-26 09:28:00,
2013-06-26 02:29:00,47.3,40.1,29.80,SE,145,0.0,31.0,76,0.00,,---,0.00,VWS V12.07,2013-06-26 09:29:00,
2013-06-26 02:30:00,47.1,39.9,29.80,SE,145,0.0,31.0,76,0.00,,---,0.00,VWS V12.07,2013-06-26 09:30:00,
2013-06-26 02:31:00,47.1,39.9,29.80,SE,145,0.0,31.0,76,0.00,,---,0.00,VWS V12.07,2013-06-26 09:31:00,
2013-06-26 02:33:00,47.1,39.9,29.80,SE,145,0.0,31.0,76,0.00,,---,0.00,VWS V12.07,2013-06-26 09:33:00,
2013-06-26 02:34:00,47.1,39.9,29.80,SE,145,0.0,31.0,76,0.00,,---,0.00,VWS V12.07,2013-06-26 09:34:00,
2013-06-26 02:35:00,47.0,39.8,29.80,SE,145,0.0,31.0,76,0.00,,---,0.00,VWS V12.07,2013-06-26 09:35:00,
2013-06-26 02:36:00,47.0,40.2,29.80,SE,145,0.0,31.0,77,0.00,,---,0.00,VWS V12.07,2013-06-26 09:36:00,
2013-06-26 02:39:00,47.0,40.2,29.80,SE,145,0.0,31.0,77,0.00,,---,0.00,VWS V12.07,2013-06-26 09:39:00,
2013-06-26 02:40:00,46.8,40.0,29.80,SE,145,0.0,31.0,77,0.00,,---,0.00,VWS V12.07,2013-06-26 09:40:00,
2013-06-26 02:41:00,46.8,40.0,29.80,SE,145,0.0,31.0,77,0.00,,---,0.00,VWS V12.07,2013-06-26 09:41:00,
2013-06-26 02:44:00,46.8,40.0,29.80,SE,145,0.0,31.0,77,0.00,,---,0.00,VWS V12.07,2013-06-26 09:44:00,
2013-06-26 02:45:00,46.8,40.0,29.80,SE,145,0.0,31.0,77,0.00,,---,0.00,VWS V12.07,2013-06-26 09:45:00,
2013-06-26 02:46:00,46.7,39.9,29.80,SE,145,0.0,31.0,77,0.00,,---,0.00,VWS V12.07,2013-06-26 09:46:00,
2013-06-26 02:47:00,46.7,39.9,29.80,SE,145,0.0,31.0,77,0.00,,---,0.00,VWS V12.07,2013-06-26 09:47:00,
2013-06-26 02:50:00,46.7,40.2,29.80,SE,145,0.0,31.0,78,0.00,,---,0.00,VWS V12.07,2013-06-26 09:50:00,
2013-06-26 02:51:00,46.7,40.2,29.80,SE,145,0.0,31.0,78,0.00,,---,0.00,VWS V12.07,2013-06-26 09:51:00,
2013-06-26 02:52:00,46.7,40.2,29.80,SE,145,0.0,31.0,78,0.00,,---,0.00,VWS V12.07,2013-06-26 09:52:00,
2013-06-26 02:55:00,46.7,40.2,29.80,SE,145,0.0,31.0,78,0.00,,---,0.00,VWS V12.07,2013-06-26 09:55:00,
2013-06-26 02:56:00,46.7,40.2,29.80,SE,145,0.0,31.0,78,0.00,,---,0.00,VWS V12.07,2013-06-26 09:56:00,
2013-06-26 02:58:00,46.7,40.2,29.80,SE,145,0.0,31.0,78,0.00,,---,0.00,VWS V12.07,2013-06-26 09:58:00,
2013-06-26 03:00:00,46.7,39.9,29.80,SE,145,0.0,31.0,77,0.00,,---,0.00,VWS V12.07,2013-06-26 10:00:00,
2013-06-26 03:02:00,46.7,39.9,29.80,SE,145,0.0,31.0,77,0.00,,---,0.00,VWS V12.07,2013-06-26 10:02:00,
2013-06-26 03:03:00,46.7,39.9,29.80,SE,145,0.0,31.0,77,0.00,,---,0.00,VWS V12.07,2013-06-26 10:03:00,
2013-06-26 03:05:00,46.7,39.9,29.80,SE,145,0.0,31.0,77,0.00,,---,0.00,VWS V12.07,2013-06-26 10:05:00,
2013-06-26 03:06:00,46.7,39.9,29.80,SE,145,0.0,31.0,77,0.00,,---,0.00,VWS V12.07,2013-06-26 10:06:00,
2013-06-26 03:07:00,46.8,40.0,29.80,SE,145,0.0,31.0,77,0.00,,---,0.00,VWS V12.07,2013-06-26 10:07:00,
2013-06-26 03:08:00,46.8,40.3,29.80,SE,145,0.0,31.0,78,0.00,,---,0.00,VWS V12.07,2013-06-26 10:08:00,
2013-06-26 03:09:00,46.8,40.3,29.80,SE,145,0.0,31.0,78,0.00,,---,0.00,VWS V12.07,2013-06-26 10:09:00,
2013-06-26 03:10:00,46.8,40.3,29.80,SE,145,0.0,0.0,78,0.00,,---,0.00,VWS V12.07,2013-06-26 10:10:00,
2013-06-26 03:11:00,46.8,40.3,29.80,SE,145,0.0,31.0,78,0.00,,---,0.00,VWS V12.07,2013-06-26 10:11:00,
2013-06-26 03:13:00,46.8,40.3,29.80,SE,145,0.0,31.0,78,0.00,,---,0.00,VWS V12.07,2013-06-26 10:13:00,
2013-06-26 03:14:00,46.8,40.3,29.80,SE,145,0.0,31.0,78,0.00,,---,0.00,VWS V12.07,2013-06-26 10:14:00,
2013-06-26 03:16:00,46.8,40.3,29.79,SE,145,0.0,31.0,78,0.00,,---,0.00,VWS V12.07,2013-06-26 10:16:00,
2013-06-26 03:19:00,46.8,40.3,29.79,SE,145,0.0,31.0,78,0.00,,---,0.00,VWS V12.07,2013-06-26 10:19:00,
2013-06-26 03:20:00,46.8,40.3,29.79,SE,145,0.0,0.0,78,0.00,,---,0.00,VWS V12.07,2013-06-26 10:20:00,
2013-06-26 03:21:00,46.8,40.3,29.79,SE,145,0.0,31.0,78,0.00,,---,0.00,VWS V12.07,2013-06-26 10:21:00,
2013-06-26 03:24:00,46.8,40.3,29.79,SE,145,0.0,31.0,78,0.00,,---,0.00,VWS V12.07,2013-06-26 10:24:00,
2013-06-26 03:25:00,46.8,40.3,29.79,SE,145,0.0,31.0,78,0.00,,---,0.00,VWS V12.07,2013-06-26 10:25:00,
2013-06-26 03:26:00,46.8,40.3,29.79,SE,145,0.0,31.0,78,0.00,,---,0.00,VWS V12.07,2013-06-26 10:26:00,
2013-06-26 03:28:00,47.0,40.5,29.79,SE,145,0.0,31.0,78,0.00,,---,0.00,VWS V12.07,2013-06-26 10:28:00,
2013-06-26 03:29:00,47.0,40.5,29.79,SE,145,0.0,31.0,78,0.00,,---,0.00,VWS V12.07,2013-06-26 10:29:00,
2013-06-26 03:30:00,47.0,40.5,29.79,SE,145,0.0,31.0,78,0.00,,---,0.00,VWS V12.07,2013-06-26 10:30:00,
2013-06-26 03:31:00,47.0,40.5,29.79,SE,145,0.0,31.0,78,0.00,,---,0.00,VWS V12.07,2013-06-26 10:31:00,
2013-06-26 03:33:00,47.0,40.5,29.79,SE,145,0.0,31.0,78,0.00,,---,0.00,VWS V12.07,2013-06-26 10:33:00,
2013-06-26 03:34:00,47.0,40.5,29.79,SE,145,0.0,31.0,78,0.00,,---,0.00,VWS V12.07,2013-06-26 10:34:00,
2013-06-26 03:35:00,47.0,40.5,29.79,SE,145,0.0,31.0,78,0.00,,---,0.00,VWS V12.07,2013-06-26 10:35:00,
2013-06-26 03:37:00,47.1,40.6,29.79,SE,145,0.0,31.0,78,0.00,,---,0.00,VWS V12.07,2013-06-26 10:37:00,
2013-06-26 03:39:00,47.1,40.6,29.79,SE,145,0.0,31.0,78,0.00,,---,0.00,VWS V12.07,2013-06-26 10:39:00,
2013-06-26 03:40:00,47.1,40.6,29.79,SE,145,0.0,31.0,78,0.00,,---,0.00,VWS V12.07,2013-06-26 10:40:00,
2013-06-26 03:42:00,47.3,40.8,29.79,SE,145,0.0,31.0,78,0.00,,---,0.00,VWS V12.07,2013-06-26 10:42:00,
2013-06-26 03:44:00,47.3,40.8,29.79,SE,145,0.0,31.0,78,0.00,,---,0.00,VWS V12.07,2013-06-26 10:44:00,
2013-06-26 03:45:00,47.3,40.8,29.79,SE,145,0.0,31.0,78,0.00,,---,0.00,VWS V12.07,2013-06-26 10:45:00,
2013-06-26 03:48:00,47.4,40.9,29.79,SE,145,0.0,31.0,78,0.00,,---,0.00,VWS V12.07,2013-06-26 10:48:00,
2013-06-26 03:49:00,47.4,40.9,29.79,SE,145,0.0,31.0,78,0.00,,---,0.00,VWS V12.07,2013-06-26 10:49:00,
2013-06-26 03:50:00,47.4,40.9,29.79,SE,145,0.0,31.0,78,0.00,,---,0.00,VWS V12.07,2013-06-26 10:50:00,
2013-06-26 03:53:00,47.4,40.9,29.79,SE,145,0.0,31.0,78,0.00,,---,0.00,VWS V12.07,2013-06-26 10:53:00,
2013-06-26 03:55:00,47.6,41.1,29.79,SE,145,0.0,31.0,78,0.00,,---,0.00,VWS V12.07,2013-06-26 10:55:00,
2013-06-26 03:56:00,47.6,41.1,29.79,SE,145,0.0,31.0,78,0.00,,---,0.00,VWS V12.07,2013-06-26 10:56:00,
2013-06-26 03:58:00,47.6,41.1,29.79,SE,145,0.0,31.0,78,0.00,,---,0.00,VWS V12.07,2013-06-26 10:58:00,
2013-06-26 04:00:00,47.6,41.1,29.79,SE,145,0.0,31.0,78,0.00,,---,0.00,VWS V12.07,2013-06-26 11:00:00,
2013-06-26 04:01:00,47.7,41.2,29.79,SE,145,0.0,31.0,78,0.00,,---,0.00,VWS V12.07,2013-06-26 11:01:00,
2013-06-26 04:04:00,47.7,41.2,29.79,SE,145,0.0,31.0,78,0.00,,---,0.00,VWS V12.07,2013-06-26 11:04:00,
2013-06-26 04:05:00,47.7,41.2,29.79,SE,145,0.0,31.0,78,0.00,,---,0.00,VWS V12.07,2013-06-26 11:05:00,
2013-06-26 04:06:00,47.7,41.2,29.79,SE,145,0.0,31.0,78,0.00,,---,0.00,VWS V12.07,2013-06-26 11:06:00,
2013-06-26 04:07:00,47.7,41.2,29.79,SE,145,0.0,31.0,78,0.00,,---,0.00,VWS V12.07,2013-06-26 11:07:00,
2013-06-26 04:09:00,47.7,41.2,29.79,SE,145,0.0,31.0,78,0.00,,---,0.00,VWS V12.07,2013-06-26 11:09:00,
2013-06-26 04:10:00,47.7,41.2,29.79,SE,145,0.0,31.0,78,0.00,,---,0.00,VWS V12.07,2013-06-26 11:10:00,
2013-06-26 04:11:00,47.7,41.2,29.79,SE,145,0.0,31.0,78,0.00,,---,0.00,VWS V12.07,2013-06-26 11:11:00,
2013-06-26 04:12:00,47.7,41.2,29.79,SE,145,0.0,31.0,78,0.00,,---,0.00,VWS V12.07,2013-06-26 11:12:00,
2013-06-26 04:14:00,47.7,41.2,29.79,SE,145,0.0,31.0,78,0.00,,---,0.00,VWS V12.07,2013-06-26 11:14:00,
2013-06-26 04:16:00,47.7,41.2,29.79,SE,145,0.0,31.0,78,0.00,,---,0.00,VWS V12.07,2013-06-26 11:16:00,
2013-06-26 04:17:00,47.7,41.2,29.79,SE,145,0.0,31.0,78,0.00,,---,0.00,VWS V12.07,2013-06-26 11:17:00,
2013-06-26 04:19:00,47.7,41.2,29.79,SE,145,0.0,31.0,78,0.00,,---,0.00,VWS V12.07,2013-06-26 11:19:00,
2013-06-26 04:20:00,47.7,41.2,29.79,SE,145,0.0,0.0,78,0.00,,---,0.00,VWS V12.07,2013-06-26 11:20:00,
2013-06-26 04:21:00,47.7,41.2,29.79,SE,145,0.0,31.0,78,0.00,,---,0.00,VWS V12.07,2013-06-26 11:21:00,
2013-06-26 04:22:00,47.7,40.8,29.79,SE,145,0.0,31.0,77,0.00,,---,0.00,VWS V12.07,2013-06-26 11:22:00,
2013-06-26 04:23:00,47.7,41.2,29.79,SE,145,0.0,31.0,78,0.00,,---,0.00,VWS V12.07,2013-06-26 11:23:00,
2013-06-26 04:24:00,47.7,41.2,29.79,SE,145,0.0,31.0,78,0.00,,---,0.00,VWS V12.07,2013-06-26 11:24:00,
2013-06-26 04:26:00,47.7,41.2,29.79,SE,145,0.0,31.0,78,0.00,,---,0.00,VWS V12.07,2013-06-26 11:26:00,
2013-06-26 04:27:00,47.7,41.2,29.79,SE,145,0.0,31.0,78,0.00,,---,0.00,VWS V12.07,2013-06-26 11:27:00,
2013-06-26 04:28:00,47.7,41.2,29.79,SE,145,0.0,31.0,78,0.00,,---,0.00,VWS V12.07,2013-06-26 11:28:00,
2013-06-26 04:30:00,47.9,41.4,29.80,SE,145,0.0,31.0,78,0.00,,---,0.00,VWS V12.07,2013-06-26 11:30:00,
2013-06-26 04:32:00,47.9,41.4,29.80,SE,145,0.0,31.0,78,0.00,,---,0.00,VWS V12.07,2013-06-26 11:32:00,
2013-06-26 04:33:00,47.9,41.0,29.80,SE,145,0.0,31.0,77,0.00,,---,0.00,VWS V12.07,2013-06-26 11:33:00,
2013-06-26 04:35:00,47.9,41.0,29.80,SE,145,0.0,31.0,77,0.00,,---,0.00,VWS V12.07,2013-06-26 11:35:00,
2013-06-26 04:37:00,47.9,41.0,29.80,SE,145,0.0,31.0,77,0.00,,---,0.00,VWS V12.07,2013-06-26 11:37:00,
2013-06-26 04:38:00,47.9,41.0,29.80,SE,145,0.0,31.0,77,0.00,,---,0.00,VWS V12.07,2013-06-26 11:38:00,
2013-06-26 04:40:00,47.9,41.0,29.80,SE,145,0.0,31.0,77,0.00,,---,0.00,VWS V12.07,2013-06-26 11:40:00,
2013-06-26 04:42:00,47.9,41.0,29.80,SE,145,0.0,31.0,77,0.00,,---,0.00,VWS V12.07,2013-06-26 11:42:00,
2013-06-26 04:43:00,47.9,41.0,29.80,SE,145,0.0,31.0,77,0.00,,---,0.00,VWS V12.07,2013-06-26 11:43:00,
2013-06-26 04:44:00,47.9,41.0,29.80,SE,145,0.0,31.0,77,0.00,,---,0.00,VWS V12.07,2013-06-26 11:44:00,
2013-06-26 04:45:00,47.9,41.0,29.80,SE,145,0.0,31.0,77,0.00,,---,0.00,VWS V12.07,2013-06-26 11:45:00,
2013-06-26 04:47:00,47.9,41.0,29.80,SE,145,0.0,31.0,77,0.00,,---,0.00,VWS V12.07,2013-06-26 11:47:00,
2013-06-26 04:48:00,47.9,41.0,29.80,SE,145,0.0,31.0,77,0.00,,---,0.00,VWS V12.07,2013-06-26 11:48:00,
2013-06-26 04:49:00,47.9,41.0,29.80,SE,145,0.0,31.0,77,0.00,,---,0.00,VWS V12.07,2013-06-26 11:49:00,
2013-06-26 04:50:00,47.9,41.0,29.80,SE,145,0.0,31.0,77,0.00,,---,0.00,VWS V12.07,2013-06-26 11:50:00,
2013-06-26 04:52:00,47.9,41.0,29.80,SE,145,0.0,31.0,77,0.00,,---,0.00,VWS V12.07,2013-06-26 11:52:00,
2013-06-26 04:53:00,47.9,41.0,29.80,SE,145,0.0,31.0,77,0.00,,---,0.00,VWS V12.07,2013-06-26 11:53:00,
2013-06-26 04:54:00,47.9,41.0,29.80,SE,145,0.0,31.0,77,0.00,,---,0.00,VWS V12.07,2013-06-26 11:54:00,
2013-06-26 04:55:00,47.9,41.0,29.80,SE,145,0.0,31.0,77,0.00,,---,0.00,VWS V12.07,2013-06-26 11:55:00,
2013-06-26 04:58:00,47.9,41.0,29.80,SE,145,0.0,31.0,77,0.00,,---,0.00,VWS V12.07,2013-06-26 11:58:00,
2013-06-26 04:59:00,47.9,41.4,29.80,SE,145,0.0,31.0,78,0.00,,---,0.00,VWS V12.07,2013-06-26 11:59:00,
2013-06-26 05:00:00,47.9,41.4,29.80,SE,145,0.0,31.0,78,0.00,,---,0.00,VWS V12.07,2013-06-26 12:00:00,
2013-06-26 05:03:00,47.9,41.4,29.80,SE,145,0.0,31.0,78,0.00,,---,0.00,VWS V12.07,2013-06-26 12:03:00,
2013-06-26 05:04:00,47.9,41.4,29.80,SE,145,0.0,31.0,78,0.00,,---,0.00,VWS V12.07,2013-06-26 12:04:00,
2013-06-26 05:05:00,47.9,41.4,29.80,SE,145,0.0,31.0,78,0.00,,---,0.00,VWS V12.07,2013-06-26 12:05:00,
2013-06-26 05:06:00,47.9,41.4,29.80,SE,145,0.0,31.0,78,0.00,,---,0.00,VWS V12.07,2013-06-26 12:06:00,
2013-06-26 05:08:00,47.9,41.4,29.80,SE,145,0.0,31.0,78,0.00,,---,0.00,VWS V12.07,2013-06-26 12:08:00,
2013-06-26 05:09:00,48.0,41.5,29.80,SE,145,0.0,31.0,78,0.00,,---,0.00,VWS V12.07,2013-06-26 12:09:00,
2013-06-26 05:10:00,48.0,41.5,29.80,SE,145,0.0,31.0,78,0.00,,---,0.00,VWS V12.07,2013-06-26 12:10:00,
2013-06-26 05:11:00,48.0,41.5,29.80,SE,145,0.0,31.0,78,0.00,,---,0.00,VWS V12.07,2013-06-26 12:11:00,
2013-06-26 05:12:00,48.0,41.5,29.80,SE,145,0.0,31.0,78,0.00,,---,0.00,VWS V12.07,2013-06-26 12:12:00,
2013-06-26 05:13:00,48.0,41.5,29.80,SE,145,0.0,31.0,78,0.00,,---,0.00,VWS V12.07,2013-06-26 12:13:00,
2013-06-26 05:15:00,48.0,41.5,29.81,SE,145,0.0,31.0,78,0.00,,---,0.00,VWS V12.07,2013-06-26 12:15:00,
2013-06-26 05:16:00,48.0,41.5,29.81,SE,145,0.0,31.0,78,0.00,,---,0.00,VWS V12.07,2013-06-26 12:16:00,
2013-06-26 05:17:00,48.0,41.5,29.81,SE,145,0.0,31.0,78,0.00,,---,0.00,VWS V12.07,2013-06-26 12:17:00,
2013-06-26 05:18:00,48.0,41.5,29.81,SE,145,0.0,31.0,78,0.00,,---,0.00,VWS V12.07,2013-06-26 12:18:00,
2013-06-26 05:20:00,48.0,41.5,29.81,SE,145,0.0,31.0,78,0.00,,---,0.00,VWS V12.07,2013-06-26 12:20:00,
2013-06-26 05:21:00,48.0,41.5,29.81,SE,145,0.0,31.0,78,0.00,,---,0.00,VWS V12.07,2013-06-26 12:21:00,
2013-06-26 05:22:00,48.0,41.5,29.81,SE,145,0.0,31.0,78,0.00,,---,0.00,VWS V12.07,2013-06-26 12:22:00,
2013-06-26 05:23:00,48.0,41.5,29.81,SE,145,0.0,31.0,78,0.00,,---,0.00,VWS V12.07,2013-06-26 12:23:00,
2013-06-26 05:25:00,48.0,41.5,29.81,SE,145,0.0,31.0,78,0.00,,---,0.00,VWS V12.07,2013-06-26 12:25:00,
2013-06-26 05:26:00,48.2,41.7,29.81,SE,145,0.0,31.0,78,0.00,,---,0.00,VWS V12.07,2013-06-26 12:26:00,
2013-06-26 05:27:00,48.2,41.7,29.81,SE,145,0.0,31.0,78,0.00,,---,0.00,VWS V12.07,2013-06-26 12:27:00,
2013-06-26 05:29:00,48.2,41.7,29.81,SE,145,0.0,31.0,78,0.00,,---,0.00,VWS V12.07,2013-06-26 12:29:00,
2013-06-26 05:30:00,48.2,41.7,29.81,SE,145,0.0,31.0,78,0.00,,---,0.00,VWS V12.07,2013-06-26 12:30:00,
2013-06-26 05:31:00,48.2,41.7,29.81,SE,145,0.0,31.0,78,0.00,,---,0.00,VWS V12.07,2013-06-26 12:31:00,
2013-06-26 05:32:00,48.2,41.7,29.81,SE,145,0.0,31.0,78,0.00,,---,0.00,VWS V12.07,2013-06-26 12:32:00,
2013-06-26 05:34:00,48.2,41.7,29.81,SE,145,0.0,31.0,78,0.00,,---,0.00,VWS V12.07,2013-06-26 12:34:00,
2013-06-26 05:36:00,48.2,41.7,29.81,SE,145,0.0,31.0,78,0.00,,---,0.00,VWS V12.07,2013-06-26 12:36:00,
2013-06-26 05:37:00,48.2,41.7,29.81,SE,145,0.0,31.0,78,0.00,,---,0.00,VWS V12.07,2013-06-26 12:37:00,
2013-06-26 05:38:00,48.2,41.7,29.81,SE,145,0.0,31.0,78,0.00,,---,0.00,VWS V12.07,2013-06-26 12:38:00,
2013-06-26 05:39:00,48.2,41.7,29.81,SE,145,0.0,31.0,78,0.00,,---,0.00,VWS V12.07,2013-06-26 12:39:00,
2013-06-26 05:40:00,48.3,41.8,29.81,SE,145,0.0,0.0,78,0.00,,---,0.00,VWS V12.07,2013-06-26 12:40:00,
2013-06-26 05:41:00,48.3,41.8,29.81,SE,145,0.0,31.0,78,0.00,,---,0.00,VWS V12.07,2013-06-26 12:41:00,
2013-06-26 05:42:00,48.3,41.8,29.81,SE,145,0.0,31.0,78,0.00,,---,0.00,VWS V12.07,2013-06-26 12:42:00,
2013-06-26 05:44:00,48.3,41.8,29.81,SE,145,0.0,31.0,78,0.00,,---,0.00,VWS V12.07,2013-06-26 12:44:00,
2013-06-26 05:47:00,48.3,41.8,29.81,SE,145,0.0,31.0,78,0.00,,---,0.00,VWS V12.07,2013-06-26 12:47:00,
2013-06-26 05:48:00,48.3,41.8,29.81,SE,145,0.0,31.0,78,0.00,,---,0.00,VWS V12.07,2013-06-26 12:48:00,
2013-06-26 05:49:00,48.3,41.8,29.81,SE,145,0.0,31.0,78,0.00,,---,0.00,VWS V12.07,2013-06-26 12:49:00,
2013-06-26 05:50:00,48.3,41.8,29.81,SE,145,0.0,31.0,78,0.00,,---,0.00,VWS V12.07,2013-06-26 12:50:00,
2013-06-26 05:53:00,48.3,41.8,29.81,SE,145,0.0,31.0,78,0.00,,---,0.00,VWS V12.07,2013-06-26 12:53:00,
2013-06-26 05:54:00,48.3,41.8,29.81,SE,145,0.0,31.0,78,0.00,,---,0.00,VWS V12.07,2013-06-26 12:54:00,
2013-06-26 05:55:00,48.5,42.0,29.81,SE,145,0.0,31.0,78,0.00,,---,0.00,VWS V12.07,2013-06-26 12:55:00,
2013-06-26 05:58:00,48.5,42.0,29.81,SE,145,0.0,31.0,78,0.00,,---,0.00,VWS V12.07,2013-06-26 12:58:00,
2013-06-26 05:59:00,48.5,42.0,29.81,SE,145,0.0,31.0,78,0.00,,---,0.00,VWS V12.07,2013-06-26 12:59:00,
2013-06-26 06:00:00,48.6,42.1,29.80,SE,145,0.0,31.0,78,0.00,,---,0.00,VWS V12.07,2013-06-26 13:00:00,
2013-06-26 06:03:00,48.6,42.1,29.80,SE,145,0.0,31.0,78,0.00,,---,0.00,VWS V12.07,2013-06-26 13:03:00,
2013-06-26 06:04:00,48.6,42.1,29.80,SE,145,0.0,31.0,78,0.00,,---,0.00,VWS V12.07,2013-06-26 13:04:00,
2013-06-26 06:05:00,48.6,42.1,29.80,SE,145,0.0,31.0,78,0.00,,---,0.00,VWS V12.07,2013-06-26 13:05:00,
2013-06-26 06:08:00,48.6,42.1,29.80,SE,145,0.0,31.0,78,0.00,,---,0.00,VWS V12.07,2013-06-26 13:08:00,
2013-06-26 06:10:00,48.6,42.1,29.80,SE,145,0.0,31.0,78,0.00,,---,0.00,VWS V12.07,2013-06-26 13:10:00,
2013-06-26 06:13:00,48.6,42.1,29.80,SE,145,0.0,31.0,78,0.00,,---,0.00,VWS V12.07,2013-06-26 13:13:00,
2013-06-26 06:15:00,48.8,42.3,29.81,SE,145,0.0,31.0,78,0.00,,---,0.00,VWS V12.07,2013-06-26 13:15:00,
2013-06-26 06:16:00,48.8,42.3,29.81,SE,145,0.0,31.0,78,0.00,,---,0.00,VWS V12.07,2013-06-26 13:16:00,
2013-06-26 06:19:00,48.8,42.6,29.81,SE,145,0.0,31.0,79,0.00,,---,0.00,VWS V12.07,2013-06-26 13:19:00,
2013-06-26 06:20:00,48.9,42.7,29.81,SE,145,0.0,31.0,79,0.00,,---,0.00,VWS V12.07,2013-06-26 13:20:00,
2013-06-26 06:21:00,48.9,42.7,29.81,SE,145,0.0,31.0,79,0.00,,---,0.00,VWS V12.07,2013-06-26 13:21:00,
2013-06-26 06:24:00,49.1,42.9,29.81,SE,145,0.0,31.0,79,0.00,,---,0.00,VWS V12.07,2013-06-26 13:24:00,
2013-06-26 06:25:00,49.1,42.9,29.81,SE,145,0.0,31.0,79,0.00,,---,0.00,VWS V12.07,2013-06-26 13:25:00,
2013-06-26 06:26:00,49.1,42.9,29.81,SE,145,0.0,31.0,79,0.00,,---,0.00,VWS V12.07,2013-06-26 13:26:00,
2013-06-26 06:30:00,49.2,43.0,29.81,SE,145,0.0,31.0,79,0.00,,---,0.00,VWS V12.07,2013-06-26 13:30:00,
2013-06-26 06:31:00,49.2,43.0,29.81,SE,145,0.0,31.0,79,0.00,,---,0.00,VWS V12.07,2013-06-26 13:31:00,
2013-06-26 06:35:00,49.4,43.2,29.81,SE,145,0.0,31.0,79,0.00,,---,0.00,VWS V12.07,2013-06-26 13:35:00,
2013-06-26 06:36:00,49.4,43.2,29.81,SE,145,0.0,31.0,79,0.00,,---,0.00,VWS V12.07,2013-06-26 13:36:00,
2013-06-26 06:37:00,49.4,43.2,29.81,SE,145,0.0,31.0,79,0.00,,---,0.00,VWS V12.07,2013-06-26 13:37:00,
2013-06-26 06:40:00,49.5,43.3,29.81,SE,145,0.0,0.0,79,0.00,,---,0.00,VWS V12.07,2013-06-26 13:40:00,
2013-06-26 06:41:00,49.5,43.3,29.81,SE,145,0.0,31.0,79,0.00,,---,0.00,VWS V12.07,2013-06-26 13:41:00,
2013-06-26 06:42:00,49.5,43.3,29.81,SE,145,0.0,31.0,79,0.00,,---,0.00,VWS V12.07,2013-06-26 13:42:00,
2013-06-26 06:43:00,49.5,43.3,29.81,SE,145,0.0,31.0,79,0.00,,---,0.00,VWS V12.07,2013-06-26 13:43:00,
2013-06-26 06:46:00,49.6,43.4,29.82,SE,145,0.0,31.0,79,0.00,,---,0.00,VWS V12.07,2013-06-26 13:46:00,
2013-06-26 06:47:00,49.6,43.4,29.82,SE,145,0.0,31.0,79,0.00,,---,0.00,VWS V12.07,2013-06-26 13:47:00,
2013-06-26 06:49:00,49.8,43.6,29.82,SE,145,0.0,31.0,79,0.00,,---,0.00,VWS V12.07,2013-06-26 13:49:00,
2013-06-26 06:50:00,49.8,43.6,29.82,SE,145,0.0,0.0,79,0.00,,---,0.00,VWS V12.07,2013-06-26 13:50:00,
2013-06-26 06:51:00,49.8,43.6,29.82,SE,145,0.0,31.0,79,0.00,,---,0.00,VWS V12.07,2013-06-26 13:51:00,
2013-06-26 06:52:00,49.9,43.7,29.82,SE,145,0.0,31.0,79,0.00,,---,0.00,VWS V12.07,2013-06-26 13:52:00,
2013-06-26 06:54:00,49.9,43.7,29.82,SE,145,0.0,31.0,79,0.00,,---,0.00,VWS V12.07,2013-06-26 13:54:00,
2013-06-26 06:56:00,50.1,43.8,29.82,SE,145,0.0,31.0,79,0.00,,---,0.00,VWS V12.07,2013-06-26 13:56:00,
2013-06-26 06:57:00,50.1,43.8,29.82,SE,145,0.0,31.0,79,0.00,,---,0.00,VWS V12.07,2013-06-26 13:57:00,
2013-06-26 06:58:00,50.1,43.8,29.82,SE,145,0.0,31.0,79,0.00,,---,0.00,VWS V12.07,2013-06-26 13:58:00,
2013-06-26 06:59:00,50.2,44.0,29.81,SE,145,0.0,31.0,79,0.00,,---,0.00,VWS V12.07,2013-06-26 13:59:00,
2013-06-26 07:00:00,50.2,44.0,29.81,SE,145,0.0,0.0,79,0.00,,---,0.00,VWS V12.07,2013-06-26 14:00:00,
2013-06-26 07:02:00,50.2,44.0,29.81,SE,145,0.0,31.0,79,0.00,,---,0.00,VWS V12.07,2013-06-26 14:02:00,
2013-06-26 07:03:00,50.2,44.0,29.81,SE,145,0.0,31.0,79,0.00,,---,0.00,VWS V12.07,2013-06-26 14:03:00,
2013-06-26 07:05:00,50.4,43.8,29.81,SE,145,0.0,31.0,78,0.00,,---,0.00,VWS V12.07,2013-06-26 14:05:00,
2013-06-26 07:07:00,50.4,44.1,29.81,SE,145,0.0,31.0,79,0.00,,---,0.00,VWS V12.07,2013-06-26 14:07:00,
2013-06-26 07:08:00,50.5,43.9,29.81,SE,145,0.0,31.0,78,0.00,,---,0.00,VWS V12.07,2013-06-26 14:08:00,
2013-06-26 07:10:00,50.5,43.9,29.81,SE,145,0.0,0.0,78,0.00,,---,0.00,VWS V12.07,2013-06-26 14:10:00,
2013-06-26 07:11:00,50.5,43.9,29.81,SE,145,0.0,31.0,78,0.00,,---,0.00,VWS V12.07,2013-06-26 14:11:00,
2013-06-26 07:12:00,50.5,43.9,29.81,SE,145,0.0,31.0,78,0.00,,---,0.00,VWS V12.07,2013-06-26 14:12:00,
2013-06-26 07:13:00,50.7,44.1,29.81,SE,145,0.0,31.0,78,0.00,,---,0.00,VWS V12.07,2013-06-26 14:13:00,
2013-06-26 07:14:00,50.7,44.1,29.81,SE,145,0.0,31.0,78,0.00,,---,0.00,VWS V12.07,2013-06-26 14:14:00,
2013-06-26 07:17:00,50.8,43.9,29.81,SE,145,0.0,31.0,77,0.00,,---,0.00,VWS V12.07,2013-06-26 14:17:00,
2013-06-26 07:18:00,50.8,43.9,29.81,SE,145,0.0,31.0,77,0.00,,---,0.00,VWS V12.07,2013-06-26 14:18:00,
2013-06-26 07:19:00,50.8,43.9,29.81,SE,145,0.0,31.0,77,0.00,,---,0.00,VWS V12.07,2013-06-26 14:19:00,
2013-06-26 07:20:00,51.0,44.0,29.81,SE,145,0.0,1.0,77,0.00,,---,0.00,VWS V12.07,2013-06-26 14:20:00,
2013-06-26 07:22:00,51.0,44.0,29.81,SE,145,0.0,31.0,77,0.00,,---,0.00,VWS V12.07,2013-06-26 14:22:00,
2013-06-26 07:23:00,51.1,44.2,29.81,SE,145,0.0,31.0,77,0.00,,---,0.00,VWS V12.07,2013-06-26 14:23:00,
2013-06-26 07:24:00,51.1,44.2,29.81,SE,145,0.0,31.0,77,0.00,,---,0.00,VWS V12.07,2013-06-26 14:24:00,
2013-06-26 07:28:00,51.4,44.4,29.81,SE,145,0.0,31.0,77,0.00,,---,0.00,VWS V12.07,2013-06-26 14:28:00,
2013-06-26 07:29:00,51.4,44.1,29.81,SE,145,1.0,31.0,76,0.00,,---,0.00,VWS V12.07,2013-06-26 14:29:00,
2013-06-26 07:30:00,51.6,44.3,29.81,SE,145,0.0,2.0,76,0.00,,---,0.00,VWS V12.07,2013-06-26 14:30:00,
2013-06-26 07:33:00,51.7,44.0,29.81,SE,145,0.0,31.0,75,0.00,,---,0.00,VWS V12.07,2013-06-26 14:33:00,
2013-06-26 07:34:00,51.7,44.0,29.81,SE,145,0.0,31.0,75,0.00,,---,0.00,VWS V12.07,2013-06-26 14:34:00,
2013-06-26 07:35:00,51.9,43.9,29.81,SE,145,1.0,31.0,74,0.00,,---,0.00,VWS V12.07,2013-06-26 14:35:00,
2013-06-26 07:39:00,52.0,43.6,29.81,SSE,151,0.0,31.0,73,0.00,,---,0.00,VWS V12.07,2013-06-26 14:39:00,
2013-06-26 07:40:00,52.0,43.6,29.81,SSE,151,2.0,31.0,73,0.00,,---,0.00,VWS V12.07,2013-06-26 14:40:00,
2013-06-26 07:44:00,52.2,43.8,29.81,SSE,151,0.0,31.0,73,0.00,,---,0.00,VWS V12.07,2013-06-26 14:44:00,
2013-06-26 07:45:00,52.3,44.3,29.81,SSE,151,0.0,31.0,74,0.00,,---,0.00,VWS V12.07,2013-06-26 14:45:00,
2013-06-26 07:49:00,52.3,44.3,29.81,SSE,154,2.0,31.0,74,0.00,,---,0.00,VWS V12.07,2013-06-26 14:49:00,
2013-06-26 07:50:00,52.3,44.3,29.81,SSE,154,2.0,31.0,74,0.00,,---,0.00,VWS V12.07,2013-06-26 14:50:00,
2013-06-26 07:51:00,52.3,44.6,29.81,SSE,154,0.0,31.0,75,0.00,,---,0.00,VWS V12.07,2013-06-26 14:51:00,
2013-06-26 07:54:00,52.5,44.5,29.81,SSE,154,0.0,31.0,74,0.00,,---,0.00,VWS V12.07,2013-06-26 14:54:00,
2013-06-26 07:55:00,52.5,44.8,29.81,SSE,154,0.0,31.0,75,0.00,,---,0.00,VWS V12.07,2013-06-26 14:55:00,
2013-06-26 07:56:00,52.5,44.8,29.81,SSE,154,0.0,31.0,75,0.00,,---,0.00,VWS V12.07,2013-06-26 14:56:00,
2013-06-26 07:59:00,52.5,44.5,29.82,SSE,154,0.0,31.0,74,0.00,,---,0.00,VWS V12.07,2013-06-26 14:59:00,
2013-06-26 08:00:00,52.5,44.8,29.82,SSE,154,0.0,31.0,75,0.00,,---,0.00,VWS V12.07,2013-06-26 15:00:00,
2013-06-26 08:01:00,52.5,44.8,29.82,SSE,154,2.0,31.0,75,0.00,,---,0.00,VWS V12.07,2013-06-26 15:01:00,
2013-06-26 08:04:00,52.5,44.8,29.82,SSE,155,1.0,31.0,75,0.00,,---,0.00,VWS V12.07,2013-06-26 15:04:00,
2013-06-26 08:06:00,52.6,44.6,29.82,SSE,155,0.0,31.0,74,0.00,,---,0.00,VWS V12.07,2013-06-26 15:06:00,
2013-06-26 08:07:00,52.8,45.5,29.82,SSE,155,0.0,31.0,76,0.00,,---,0.00,VWS V12.07,2013-06-26 15:07:00,
2013-06-26 08:09:00,52.8,44.8,29.82,SSE,151,2.0,31.0,74,0.00,,---,0.00,VWS V12.07,2013-06-26 15:09:00,
2013-06-26 08:10:00,52.8,44.8,29.82,SSE,151,0.0,5.0,74,0.00,,---,0.00,VWS V12.07,2013-06-26 15:10:00,
2013-06-26 08:11:00,52.8,44.4,29.82,SSE,151,0.0,31.0,73,0.00,,---,0.00,VWS V12.07,2013-06-26 15:11:00,
2013-06-26 08:12:00,52.9,44.5,29.82,SSE,151,0.0,31.0,73,0.00,,---,0.00,VWS V12.07,2013-06-26 15:12:00,
2013-06-26 08:14:00,53.1,45.0,29.82,SSE,151,0.0,31.0,74,0.00,,---,0.00,VWS V12.07,2013-06-26 15:14:00,
2013-06-26 08:16:00,53.1,44.7,29.82,SSE,151,0.0,31.0,73,0.00,,---,0.00,VWS V12.07,2013-06-26 15:16:00,
2013-06-26 08:17:00,53.2,44.8,29.82,SSE,151,3.0,31.0,73,0.00,,---,0.00,VWS V12.07,2013-06-26 15:17:00,
2013-06-26 08:18:00,53.1,44.7,29.82,SSE,151,3.0,31.0,73,0.00,,---,0.00,VWS V12.07,2013-06-26 15:18:00,
2013-06-26 08:20:00,53.2,44.4,29.82,SSE,151,2.0,31.0,72,0.00,,---,0.00,VWS V12.07,2013-06-26 15:20:00,
2013-06-26 08:22:00,53.2,44.8,29.82,SSE,151,5.0,31.0,73,0.00,,---,0.00,VWS V12.07,2013-06-26 15:22:00,
2013-06-26 08:23:00,53.3,44.5,29.82,SSE,151,5.0,31.0,72,0.00,,---,0.00,VWS V12.07,2013-06-26 15:23:00,
2013-06-26 08:25:00,53.5,44.7,29.82,SSE,151,0.0,31.0,72,0.00,,---,0.00,VWS V12.07,2013-06-26 15:25:00,
2013-06-26 08:27:00,53.5,45.1,29.82,SSE,151,2.0,31.0,73,0.00,,---,0.00,VWS V12.07,2013-06-26 15:27:00,
2013-06-26 08:28:00,53.6,44.8,29.82,SSE,151,2.0,31.0,72,0.00,,---,0.00,VWS V12.07,2013-06-26 15:28:00,
2013-06-26 08:29:00,53.6,44.4,29.82,SSE,151,1.0,31.0,71,0.00,,---,0.00,VWS V12.07,2013-06-26 15:29:00,
2013-06-26 08:30:00,53.8,45.0,29.82,SSE,151,2.0,31.0,72,0.00,,---,0.00,VWS V12.07,2013-06-26 15:30:00,
2013-06-26 08:33:00,53.9,45.1,29.82,SSE,151,2.0,31.0,72,0.00,,---,0.00,VWS V12.07,2013-06-26 15:33:00,
2013-06-26 08:34:00,53.9,44.7,29.82,South,184,1.0,31.0,71,0.00,,---,0.00,VWS V12.07,2013-06-26 15:34:00,
2013-06-26 08:35:00,54.1,45.3,29.82,South,184,1.0,31.0,72,0.00,,---,0.00,VWS V12.07,2013-06-26 15:35:00,
2013-06-26 08:38:00,54.2,45.4,29.82,South,182,0.0,31.0,72,0.00,,---,0.00,VWS V12.07,2013-06-26 15:38:00,
2013-06-26 08:39:00,54.4,45.6,29.82,South,182,0.0,31.0,72,0.00,,---,0.00,VWS V12.07,2013-06-26 15:39:00,
2013-06-26 08:40:00,54.5,45.3,29.82,South,182,0.0,31.0,71,0.00,,---,0.00,VWS V12.07,2013-06-26 15:40:00,
2013-06-26 08:43:00,54.5,45.3,29.82,South,182,0.0,31.0,71,0.00,,---,0.00,VWS V12.07,2013-06-26 15:43:00,
2013-06-26 08:44:00,54.7,45.5,29.82,South,182,0.0,31.0,71,0.00,,---,0.00,VWS V12.07,2013-06-26 15:44:00,
2013-06-26 08:45:00,54.7,45.5,29.82,South,182,0.0,31.0,71,0.00,,---,0.00,VWS V12.07,2013-06-26 15:45:00,
2013-06-26 08:46:00,54.8,45.6,29.82,South,182,0.0,31.0,71,0.00,,---,0.00,VWS V12.07,2013-06-26 15:46:00,
2013-06-26 08:48:00,55.0,45.8,29.82,South,182,0.0,31.0,71,0.00,,---,0.00,VWS V12.07,2013-06-26 15:48:00,
2013-06-26 08:49:00,55.0,46.2,29.82,South,182,0.0,31.0,72,0.00,,---,0.00,VWS V12.07,2013-06-26 15:49:00,
2013-06-26 08:50:00,55.1,46.2,29.82,South,182,0.0,31.0,72,0.00,,---,0.00,VWS V12.07,2013-06-26 15:50:00,
2013-06-26 08:51:00,55.1,46.2,29.82,South,182,0.0,31.0,72,0.00,,---,0.00,VWS V12.07,2013-06-26 15:51:00,
2013-06-26 08:53:00,55.4,46.5,29.82,South,184,0.0,31.0,72,0.00,,---,0.00,VWS V12.07,2013-06-26 15:53:00,
2013-06-26 08:55:00,55.6,46.4,29.82,South,184,0.0,31.0,71,0.00,,---,0.00,VWS V12.07,2013-06-26 15:55:00,
2013-06-26 08:57:00,55.9,47.0,29.82,South,184,2.0,31.0,72,0.00,,---,0.00,VWS V12.07,2013-06-26 15:57:00,
2013-06-26 08:58:00,55.9,46.3,29.82,South,184,0.0,31.0,70,0.00,,---,0.00,VWS V12.07,2013-06-26 15:58:00,
2013-06-26 08:59:00,55.9,46.3,29.82,South,184,0.0,31.0,70,0.00,,---,0.00,VWS V12.07,2013-06-26 15:59:00,
2013-06-26 09:00:00,56.0,46.4,29.81,South,184,0.0,31.0,70,0.00,,---,0.00,VWS V12.07,2013-06-26 16:00:00,
2013-06-26 09:02:00,56.2,46.6,29.81,South,184,0.0,31.0,70,0.00,,---,0.00,VWS V12.07,2013-06-26 16:02:00,
2013-06-26 09:03:00,56.3,45.9,29.81,WNW,302,0.0,31.0,68,0.00,,---,0.00,VWS V12.07,2013-06-26 16:03:00,
2013-06-26 09:04:00,56.3,46.7,29.81,WNW,302,0.0,31.0,70,0.00,,---,0.00,VWS V12.07,2013-06-26 16:04:00,
2013-06-26 09:05:00,56.5,46.8,29.81,SSW,208,2.0,31.0,70,0.00,,---,0.00,VWS V12.07,2013-06-26 16:05:00,
2013-06-26 09:06:00,56.5,46.8,29.81,SSW,202,0.0,31.0,70,0.00,,---,0.00,VWS V12.07,2013-06-26 16:06:00,
2013-06-26 09:07:00,56.5,46.1,29.81,SSW,202,3.0,31.0,68,0.00,,---,0.00,VWS V12.07,2013-06-26 16:07:00,
2013-06-26 09:08:00,56.5,46.1,29.81,SSW,193,0.0,31.0,68,0.00,,---,0.00,VWS V12.07,2013-06-26 16:08:00,
2013-06-26 09:09:00,56.6,46.2,29.81,SSW,193,2.0,31.0,68,0.00,,---,0.00,VWS V12.07,2013-06-26 16:09:00,
2013-06-26 09:10:00,56.6,46.2,29.81,SSW,192,5.0,31.0,68,0.00,,---,0.00,VWS V12.07,2013-06-26 16:10:00,
2013-06-26 09:11:00,56.6,46.2,29.81,SSW,192,6.0,31.0,68,0.00,,---,0.00,VWS V12.07,2013-06-26 16:11:00,
2013-06-26 09:12:00,56.6,46.2,29.81,SSW,192,1.0,31.0,68,0.00,,---,0.00,VWS V12.07,2013-06-26 16:12:00,
2013-06-26 09:13:00,56.6,46.6,29.81,SSW,192,1.0,31.0,69,0.00,,---,0.00,VWS V12.07,2013-06-26 16:13:00,
2013-06-26 09:14:00,56.6,46.6,29.82,South,191,5.0,31.0,69,0.00,,---,0.00,VWS V12.07,2013-06-26 16:14:00,
2013-06-26 09:16:00,56.6,46.6,29.82,South,191,1.0,31.0,69,0.00,,---,0.00,VWS V12.07,2013-06-26 16:16:00,
2013-06-26 09:17:00,56.6,46.2,29.82,South,191,0.0,31.0,68,0.00,,---,0.00,VWS V12.07,2013-06-26 16:17:00,
2013-06-26 09:19:00,56.6,46.2,29.82,South,191,0.0,31.0,68,0.00,,---,0.00,VWS V12.07,2013-06-26 16:19:00,
2013-06-26 09:20:00,56.7,46.7,29.82,South,191,0.0,31.0,69,0.00,,---,0.00,VWS V12.07,2013-06-26 16:20:00,
2013-06-26 09:21:00,56.7,47.0,29.82,South,191,0.0,31.0,70,0.00,,---,0.00,VWS V12.07,2013-06-26 16:21:00,
2013-06-26 09:23:00,56.7,46.7,29.82,South,191,2.0,31.0,69,0.00,,---,0.00,VWS V12.07,2013-06-26 16:23:00,
2013-06-26 09:25:00,56.9,46.8,29.82,South,191,0.0,31.0,69,0.00,,---,0.00,VWS V12.07,2013-06-26 16:25:00,
2013-06-26 09:26:00,56.9,47.2,29.82,South,191,0.0,31.0,70,0.00,,---,0.00,VWS V12.07,2013-06-26 16:26:00,
2013-06-26 09:27:00,56.9,46.5,29.82,South,191,2.0,31.0,68,0.00,,---,0.00,VWS V12.07,2013-06-26 16:27:00,
2013-06-26 09:29:00,56.9,46.5,29.82,South,191,0.0,31.0,68,0.00,,---,0.00,VWS V12.07,2013-06-26 16:29:00,
2013-06-26 09:30:00,56.9,47.2,29.82,South,191,2.0,31.0,70,0.00,,---,0.00,VWS V12.07,2013-06-26 16:30:00,
2013-06-26 09:31:00,56.9,46.8,29.82,South,191,0.0,31.0,69,0.00,,---,0.00,VWS V12.07,2013-06-26 16:31:00,
2013-06-26 09:32:00,56.9,46.8,29.82,South,191,0.0,31.0,69,0.00,,---,0.00,VWS V12.07,2013-06-26 16:32:00,
2013-06-26 09:34:00,57.0,46.9,29.82,South,191,0.0,31.0,69,0.00,,---,0.00,VWS V12.07,2013-06-26 16:34:00,
2013-06-26 09:35:00,57.0,46.6,29.82,South,191,3.0,31.0,68,0.00,,---,0.00,VWS V12.07,2013-06-26 16:35:00,
2013-06-26 09:36:00,57.0,46.6,29.82,South,191,2.0,31.0,68,0.00,,---,0.00,VWS V12.07,2013-06-26 16:36:00,
2013-06-26 09:38:00,57.0,46.9,29.82,South,191,6.0,31.0,69,0.00,,---,0.00,VWS V12.07,2013-06-26 16:38:00,
2013-06-26 09:39:00,56.9,47.2,29.82,South,189,4.0,31.0,70,0.00,,---,0.00,VWS V12.07,2013-06-26 16:39:00,
2013-06-26 09:40:00,56.9,47.2,29.82,South,189,7.0,31.0,70,0.00,,---,0.00,VWS V12.07,2013-06-26 16:40:00,
2013-06-26 09:41:00,56.7,47.0,29.82,South,189,6.0,31.0,70,0.00,,---,0.00,VWS V12.07,2013-06-26 16:41:00,
2013-06-26 09:43:00,56.7,46.7,29.82,South,189,2.0,31.0,69,0.00,,---,0.00,VWS V12.07,2013-06-26 16:43:00,
2013-06-26 09:44:00,56.6,47.3,29.82,South,189,7.0,31.0,71,0.00,,---,0.00,VWS V12.07,2013-06-26 16:44:00,
2013-06-26 09:45:00,56.5,47.2,29.83,South,189,3.0,31.0,71,0.00,,---,0.00,VWS V12.07,2013-06-26 16:45:00,
2013-06-26 09:47:00,56.5,47.6,29.83,South,189,2.0,31.0,72,0.00,,---,0.00,VWS V12.07,2013-06-26 16:47:00,
2013-06-26 09:49:00,56.5,47.6,29.83,South,189,4.0,31.0,72,0.00,,---,0.00,VWS V12.07,2013-06-26 16:49:00,
2013-06-26 09:50:00,56.5,47.6,29.83,South,191,2.0,8.0,72,0.00,,---,0.00,VWS V12.07,2013-06-26 16:50:00,
2013-06-26 09:51:00,56.5,48.0,29.83,South,191,0.0,31.0,73,0.00,,---,0.00,VWS V12.07,2013-06-26 16:51:00,
2013-06-26 09:52:00,56.5,48.0,29.83,South,191,0.0,31.0,73,0.00,,---,0.00,VWS V12.07,2013-06-26 16:52:00,
2013-06-26 09:54:00,56.5,48.0,29.83,South,191,0.0,31.0,73,0.00,,---,0.00,VWS V12.07,2013-06-26 16:54:00,
2013-06-26 09:56:00,56.5,48.0,29.83,South,191,0.0,31.0,73,0.00,,---,0.00,VWS V12.07,2013-06-26 16:56:00,
2013-06-26 09:57:00,56.5,48.0,29.83,South,191,0.0,31.0,73,0.00,,---,0.00,VWS V12.07,2013-06-26 16:57:00,
2013-06-26 09:59:00,56.5,48.3,29.82,South,191,2.0,31.0,74,0.00,,---,0.00,VWS V12.07,2013-06-26 16:59:00,
2013-06-26 10:00:00,56.5,48.3,29.82,South,191,0.0,7.0,74,0.00,,---,0.00,VWS V12.07,2013-06-26 17:00:00,
2013-06-26 10:02:00,56.5,48.3,29.82,South,191,1.0,31.0,74,0.00,,---,0.00,VWS V12.07,2013-06-26 17:02:00,
2013-06-26 10:04:00,56.3,48.1,29.82,South,191,4.0,31.0,74,0.00,,---,0.00,VWS V12.07,2013-06-26 17:04:00,
2013-06-26 10:07:00,56.2,48.0,29.82,South,189,5.0,31.0,74,0.00,,---,0.00,VWS V12.07,2013-06-26 17:07:00,
2013-06-26 10:08:00,56.2,48.0,29.82,South,189,3.0,31.0,74,0.00,,---,0.00,VWS V12.07,2013-06-26 17:08:00,
2013-06-26 10:09:00,56.3,48.1,29.82,South,189,2.0,31.0,74,0.00,,---,0.00,VWS V12.07,2013-06-26 17:09:00,
2013-06-26 10:10:00,56.2,48.4,29.82,South,189,3.0,31.0,75,0.00,,---,0.00,VWS V12.07,2013-06-26 17:10:00,
2013-06-26 10:12:00,56.2,48.4,29.82,South,189,4.0,31.0,75,0.00,,---,0.00,VWS V12.07,2013-06-26 17:12:00,
2013-06-26 10:13:00,56.2,48.0,29.82,South,189,5.0,31.0,74,0.00,,---,0.00,VWS V12.07,2013-06-26 17:13:00,
2013-06-26 10:15:00,56.0,48.2,29.84,South,188,7.0,31.0,75,0.00,,---,0.00,VWS V12.07,2013-06-26 17:15:00,
2013-06-26 10:17:00,56.0,48.5,29.84,South,188,2.0,31.0,76,0.00,,---,0.00,VWS V12.07,2013-06-26 17:17:00,
2013-06-26 10:18:00,56.0,48.5,29.84,South,188,2.0,31.0,76,0.00,,---,0.00,VWS V12.07,2013-06-26 17:18:00,
2013-06-26 10:19:00,56.0,48.5,29.84,South,188,2.0,31.0,76,0.00,,---,0.00,VWS V12.07,2013-06-26 17:19:00,
2013-06-26 10:20:00,56.0,48.9,29.84,South,188,4.0,31.0,77,0.00,,---,0.00,VWS V12.07,2013-06-26 17:20:00,
2013-06-26 10:23:00,55.7,48.6,29.84,South,188,0.0,31.0,77,0.00,,---,0.00,VWS V12.07,2013-06-26 17:23:00,
2013-06-26 10:24:00,55.7,48.6,29.84,South,188,3.0,31.0,77,0.00,,---,0.00,VWS V12.07,2013-06-26 17:24:00,
2013-06-26 10:25:00,55.6,48.5,29.84,South,188,3.0,31.0,77,0.00,,---,0.00,VWS V12.07,2013-06-26 17:25:00,
2013-06-26 10:28:00,55.4,48.3,29.84,South,188,2.0,31.0,77,0.00,,---,0.00,VWS V12.07,2013-06-26 17:28:00,
2013-06-26 10:29:00,55.4,48.7,29.83,South,188,2.0,31.0,78,0.00,,---,0.00,VWS V12.07,2013-06-26 17:29:00,
2013-06-26 10:30:00,55.3,48.6,29.83,South,188,6.0,31.0,78,0.00,,---,0.00,VWS V12.07,2013-06-26 17:30:00,
2013-06-26 10:34:00,55.3,48.9,29.83,South,188,4.0,31.0,79,0.00,,---,0.00,VWS V12.07,2013-06-26 17:34:00,
2013-06-26 10:35:00,55.3,48.9,29.83,South,188,2.0,31.0,79,0.00,,---,0.00,VWS V12.07,2013-06-26 17:35:00,
2013-06-26 10:36:00,55.3,48.9,29.83,South,188,0.0,31.0,79,0.00,,---,0.00,VWS V12.07,2013-06-26 17:36:00,
2013-06-26 10:39:00,55.4,49.3,29.83,South,188,3.0,31.0,80,0.00,,---,0.00,VWS V12.07,2013-06-26 17:39:00,
2013-06-26 10:40:00,55.6,49.2,29.83,South,188,5.0,31.0,79,0.00,,---,0.00,VWS V12.07,2013-06-26 17:40:00,
2013-06-26 10:41:00,55.4,49.0,29.83,South,188,4.0,31.0,79,0.00,,---,0.00,VWS V12.07,2013-06-26 17:41:00,
2013-06-26 10:42:00,55.4,49.0,29.83,South,188,2.0,31.0,79,0.00,,---,0.00,VWS V12.07,2013-06-26 17:42:00,
2013-06-26 10:45:00,55.6,49.5,29.84,South,188,2.0,31.0,80,0.00,,---,0.00,VWS V12.07,2013-06-26 17:45:00,
2013-06-26 10:46:00,55.6,49.2,29.84,South,188,2.0,31.0,79,0.00,,---,0.00,VWS V12.07,2013-06-26 17:46:00,
2013-06-26 10:47:00,55.9,49.5,29.84,South,188,2.0,31.0,79,0.00,,---,0.00,VWS V12.07,2013-06-26 17:47:00,
2013-06-26 10:50:00,56.2,50.1,29.84,South,188,0.0,31.0,80,0.00,,---,0.00,VWS V12.07,2013-06-26 17:50:00,
2013-06-26 10:51:00,56.2,50.1,29.84,South,188,0.0,31.0,80,0.00,,---,0.00,VWS V12.07,2013-06-26 17:51:00,
2013-06-26 10:52:00,56.3,50.2,29.84,South,189,0.0,31.0,80,0.00,,---,0.00,VWS V12.07,2013-06-26 17:52:00,
2013-06-26 10:56:00,57.0,50.9,29.84,South,188,0.0,31.0,80,0.00,,---,0.00,VWS V12.07,2013-06-26 17:56:00,
2013-06-26 10:57:00,57.2,51.4,29.84,South,188,3.0,31.0,81,0.00,,---,0.00,VWS V12.07,2013-06-26 17:57:00,
2013-06-26 11:00:00,57.5,51.4,29.83,South,188,0.0,5.0,80,0.00,,---,0.00,VWS V12.07,2013-06-26 18:00:00,
2013-06-26 11:01:00,57.5,51.4,29.83,South,188,2.0,31.0,80,0.00,,---,0.00,VWS V12.07,2013-06-26 18:01:00,
2013-06-26 11:02:00,57.3,50.8,29.83,South,188,2.0,31.0,79,0.00,,---,0.00,VWS V12.07,2013-06-26 18:02:00,
2013-06-26 11:03:00,57.3,50.8,29.83,South,188,4.0,31.0,79,0.00,,---,0.00,VWS V12.07,2013-06-26 18:03:00,
2013-06-26 11:06:00,57.3,50.2,29.83,South,188,0.0,31.0,77,0.00,,---,0.00,VWS V12.07,2013-06-26 18:06:00,
2013-06-26 11:07:00,57.3,50.2,29.83,South,188,2.0,31.0,77,0.00,,---,0.00,VWS V12.07,2013-06-26 18:07:00,
2013-06-26 11:09:00,57.3,49.8,29.83,South,188,2.0,31.0,76,0.00,,---,0.00,VWS V12.07,2013-06-26 18:09:00,
2013-06-26 11:10:00,57.3,50.5,29.83,South,188,4.0,7.0,78,0.00,,---,0.00,VWS V12.07,2013-06-26 18:10:00,
2013-06-26 11:11:00,57.3,50.2,29.83,South,185,3.0,31.0,77,0.00,,---,0.00,VWS V12.07,2013-06-26 18:11:00,
2013-06-26 11:12:00,57.3,49.8,29.83,South,185,4.0,31.0,76,0.00,,---,0.00,VWS V12.07,2013-06-26 18:12:00,
2013-06-26 11:13:00,57.3,49.8,29.83,South,185,3.0,31.0,76,0.00,,---,0.00,VWS V12.07,2013-06-26 18:13:00,
2013-06-26 11:14:00,57.3,49.8,29.83,South,185,0.0,31.0,76,0.00,,---,0.00,VWS V12.07,2013-06-26 18:14:00,
2013-06-26 11:16:00,57.6,50.5,29.84,South,185,0.0,31.0,77,0.00,,---,0.00,VWS V12.07,2013-06-26 18:16:00,
2013-06-26 11:17:00,57.6,50.8,29.84,South,185,0.0,31.0,78,0.00,,---,0.00,VWS V12.07,2013-06-26 18:17:00,
2013-06-26 11:18:00,57.6,50.5,29.84,South,185,2.0,31.0,77,0.00,,---,0.00,VWS V12.07,2013-06-26 18:18:00,
2013-06-26 11:20:00,57.8,50.3,29.84,South,185,0.0,31.0,76,0.00,,---,0.00,VWS V12.07,2013-06-26 18:20:00,
2013-06-26 11:22:00,58.0,50.8,29.84,South,185,2.0,31.0,77,0.00,,---,0.00,VWS V12.07,2013-06-26 18:22:00,
2013-06-26 11:23:00,58.3,51.1,29.84,South,185,2.0,31.0,77,0.00,,---,0.00,VWS V12.07,2013-06-26 18:23:00,
2013-06-26 11:25:00,58.3,49.7,29.84,South,185,6.0,31.0,73,0.00,,---,0.00,VWS V12.07,2013-06-26 18:25:00,
2013-06-26 11:27:00,58.6,50.3,29.84,South,185,4.0,31.0,74,0.00,,---,0.00,VWS V12.07,2013-06-26 18:27:00,
2013-06-26 11:28:00,58.6,50.3,29.84,South,185,2.0,31.0,74,0.00,,---,0.00,VWS V12.07,2013-06-26 18:28:00,
2013-06-26 11:29:00,58.6,51.1,29.84,South,185,2.0,31.0,76,0.00,,---,0.00,VWS V12.07,2013-06-26 18:29:00,
2013-06-26 11:30:00,58.7,51.2,29.84,South,185,2.0,7.0,76,0.00,,---,0.00,VWS V12.07,2013-06-26 18:30:00,
2013-06-26 11:31:00,58.7,50.8,29.84,South,185,0.0,31.0,75,0.00,,---,0.00,VWS V12.07,2013-06-26 18:31:00,
2013-06-26 11:32:00,58.6,49.6,29.84,South,185,3.0,31.0,72,0.00,,---,0.00,VWS V12.07,2013-06-26 18:32:00,
2013-06-26 11:33:00,58.6,50.0,29.84,South,185,2.0,31.0,73,0.00,,---,0.00,VWS V12.07,2013-06-26 18:33:00,
2013-06-26 11:34:00,58.7,50.1,29.84,South,185,0.0,31.0,73,0.00,,---,0.00,VWS V12.07,2013-06-26 18:34:00,
2013-06-26 11:36:00,58.9,50.3,29.84,South,185,0.0,31.0,73,0.00,,---,0.00,VWS V12.07,2013-06-26 18:36:00,
2013-06-26 11:38:00,59.0,51.1,29.84,South,185,0.0,31.0,75,0.00,,---,0.00,VWS V12.07,2013-06-26 18:38:00,
2013-06-26 11:39:00,59.0,50.4,29.84,South,185,2.0,31.0,73,0.00,,---,0.00,VWS V12.07,2013-06-26 18:39:00,
2013-06-26 11:40:00,59.0,50.7,29.84,South,185,3.0,7.0,74,0.00,,---,0.00,VWS V12.07,2013-06-26 18:40:00,
2013-06-26 11:41:00,58.9,49.9,29.84,South,185,5.0,31.0,72,0.00,,---,0.00,VWS V12.07,2013-06-26 18:41:00,
2013-06-26 11:43:00,59.0,50.7,29.84,South,185,0.0,31.0,74,0.00,,---,0.00,VWS V12.07,2013-06-26 18:43:00,
2013-06-26 11:44:00,59.0,50.7,29.84,South,185,0.0,31.0,74,0.00,,---,0.00,VWS V12.07,2013-06-26 18:44:00,
2013-06-26 11:46:00,59.2,51.3,29.85,South,185,6.0,31.0,75,0.00,,---,0.00,VWS V12.07,2013-06-26 18:46:00,
2013-06-26 11:47:00,59.2,51.3,29.85,South,185,3.0,31.0,75,0.00,,---,0.00,VWS V12.07,2013-06-26 18:47:00,
2013-06-26 11:49:00,59.3,50.7,29.85,South,185,5.0,31.0,73,0.00,,---,0.00,VWS V12.07,2013-06-26 18:49:00,
2013-06-26 11:50:00,59.5,50.8,29.85,South,185,0.0,7.0,73,0.00,,---,0.00,VWS V12.07,2013-06-26 18:50:00,
2013-06-26 11:51:00,59.5,50.8,29.85,SSW,212,4.0,31.0,73,0.00,,---,0.00,VWS V12.07,2013-06-26 18:51:00,
2013-06-26 11:53:00,59.3,50.3,29.85,SSW,198,5.0,31.0,72,0.00,,---,0.00,VWS V12.07,2013-06-26 18:53:00,
2013-06-26 11:54:00,59.3,50.3,29.85,South,181,9.0,31.0,72,0.00,,---,0.00,VWS V12.07,2013-06-26 18:54:00,
2013-06-26 11:55:00,59.2,50.2,29.85,South,179,6.0,31.0,72,0.00,,---,0.00,VWS V12.07,2013-06-26 18:55:00,
2013-06-26 11:56:00,59.2,49.4,29.85,South,181,3.0,31.0,70,0.00,,---,0.00,VWS V12.07,2013-06-26 18:56:00,
2013-06-26 11:59:00,59.2,49.4,29.85,South,184,4.0,31.0,70,0.00,,---,0.00,VWS V12.07,2013-06-26 18:59:00,
2013-06-26 12:00:00,59.2,50.6,29.85,South,185,3.0,11.0,73,0.00,,---,0.00,VWS V12.07,2013-06-26 19:00:00,
2013-06-26 12:01:00,59.3,49.9,29.85,South,184,4.0,31.0,71,0.00,,---,0.00,VWS V12.07,2013-06-26 19:01:00,
2013-06-26 12:04:00,59.5,50.5,29.85,South,184,2.0,31.0,72,0.00,,---,0.00,VWS V12.07,2013-06-26 19:04:00,
2013-06-26 12:05:00,59.5,50.8,29.85,South,185,5.0,31.0,73,0.00,,---,0.00,VWS V12.07,2013-06-26 19:05:00,
2013-06-26 12:06:00,59.5,49.3,29.85,South,185,2.0,31.0,69,0.00,,---,0.00,VWS V12.07,2013-06-26 19:06:00,
2013-06-26 12:07:00,59.5,49.3,29.85,South,185,0.0,31.0,69,0.00,,---,0.00,VWS V12.07,2013-06-26 19:07:00,
2013-06-26 12:09:00,59.6,50.2,29.85,South,185,2.0,31.0,71,0.00,,---,0.00,VWS V12.07,2013-06-26 19:09:00,
2013-06-26 12:10:00,59.5,50.1,29.85,South,185,3.0,31.0,71,0.00,,---,0.00,VWS V12.07,2013-06-26 19:10:00,
2013-06-26 12:11:00,59.6,49.8,29.85,South,185,2.0,31.0,70,0.00,,---,0.00,VWS V12.07,2013-06-26 19:11:00,
2013-06-26 12:12:00,59.5,49.7,29.85,South,184,3.0,31.0,70,0.00,,---,0.00,VWS V12.07,2013-06-26 19:12:00,
2013-06-26 12:14:00,59.6,49.4,29.85,South,184,2.0,31.0,69,0.00,,---,0.00,VWS V12.07,2013-06-26 19:14:00,
2013-06-26 12:15:00,59.8,49.6,29.84,South,185,2.0,31.0,69,0.00,,---,0.00,VWS V12.07,2013-06-26 19:15:00,
2013-06-26 12:17:00,59.8,50.0,29.84,South,185,5.0,31.0,70,0.00,,---,0.00,VWS V12.07,2013-06-26 19:17:00,
2013-06-26 12:18:00,59.9,50.5,29.84,South,185,3.0,31.0,71,0.00,,---,0.00,VWS V12.07,2013-06-26 19:18:00,
2013-06-26 12:19:00,59.9,50.5,29.84,South,184,7.0,31.0,71,0.00,,---,0.00,VWS V12.07,2013-06-26 19:19:00,
2013-06-26 12:20:00,59.9,50.1,29.84,South,191,0.0,7.0,70,0.00,,---,0.00,VWS V12.07,2013-06-26 19:20:00,
2013-06-26 12:21:00,60.1,51.4,29.84,South,191,3.0,31.0,73,0.00,,---,0.00,VWS V12.07,2013-06-26 19:21:00,
2013-06-26 12:22:00,60.1,51.4,29.84,South,191,2.0,31.0,73,0.00,,---,0.00,VWS V12.07,2013-06-26 19:22:00,
2013-06-26 12:23:00,60.1,51.4,29.84,South,191,2.0,31.0,73,0.00,,---,0.00,VWS V12.07,2013-06-26 19:23:00,
2013-06-26 12:24:00,60.2,50.0,29.84,South,191,5.0,31.0,69,0.00,,---,0.00,VWS V12.07,2013-06-26 19:24:00,
2013-06-26 12:27:00,60.7,51.6,29.84,SSW,192,2.0,31.0,72,0.00,,---,0.00,VWS V12.07,2013-06-26 19:27:00,
2013-06-26 12:28:00,60.7,52.0,29.84,South,188,5.0,31.0,73,0.00,,---,0.00,VWS V12.07,2013-06-26 19:28:00,
2013-06-26 12:29:00,60.9,52.2,29.84,South,188,5.0,31.0,73,0.00,,---,0.00,VWS V12.07,2013-06-26 19:29:00,
2013-06-26 12:30:00,60.9,52.2,29.84,South,188,1.0,31.0,73,0.00,,---,0.00,VWS V12.07,2013-06-26 19:30:00,
2013-06-26 12:32:00,60.9,49.9,29.84,South,178,5.0,31.0,67,0.00,,---,0.00,VWS V12.07,2013-06-26 19:32:00,
2013-06-26 12:33:00,60.7,48.9,29.84,South,181,3.0,31.0,65,0.00,,---,0.00,VWS V12.07,2013-06-26 19:33:00,
2013-06-26 12:34:00,60.9,50.7,29.84,South,181,2.0,31.0,69,0.00,,---,0.00,VWS V12.07,2013-06-26 19:34:00,
2013-06-26 12:35:00,61.0,50.8,29.84,South,179,7.0,31.0,69,0.00,,---,0.00,VWS V12.07,2013-06-26 19:35:00,
2013-06-26 12:37:00,61.2,51.0,29.84,SSE,161,2.0,31.0,69,0.00,,---,0.00,VWS V12.07,2013-06-26 19:37:00,
2013-06-26 12:38:00,61.3,51.1,29.84,WNW,298,0.0,31.0,69,0.00,,---,0.00,VWS V12.07,2013-06-26 19:38:00,
2013-06-26 12:39:00,61.6,50.5,29.84,SSW,203,0.0,31.0,67,0.00,,---,0.00,VWS V12.07,2013-06-26 19:39:00,
2013-06-26 12:40:00,61.6,50.5,29.84,SSW,203,0.0,31.0,67,0.00,,---,0.00,VWS V12.07,2013-06-26 19:40:00,
2013-06-26 12:42:00,62.4,51.3,29.84,SSW,206,0.0,31.0,67,0.00,,---,0.00,VWS V12.07,2013-06-26 19:42:00,
2013-06-26 12:43:00,62.6,51.5,29.84,SSW,206,0.0,31.0,67,0.00,,---,0.00,VWS V12.07,2013-06-26 19:43:00,
2013-06-26 12:44:00,62.7,52.0,29.83,South,181,3.0,31.0,68,0.00,,---,0.00,VWS V12.07,2013-06-26 19:44:00,
2013-06-26 12:45:00,62.4,51.7,29.83,South,186,2.0,31.0,68,0.00,,---,0.00,VWS V12.07,2013-06-26 19:45:00,
2013-06-26 12:47:00,62.7,50.4,29.83,South,169,2.0,31.0,64,0.00,,---,0.00,VWS V12.07,2013-06-26 19:47:00,
2013-06-26 12:48:00,62.7,50.4,29.83,South,171,2.0,31.0,64,0.00,,---,0.00,VWS V12.07,2013-06-26 19:48:00,
2013-06-26 12:50:00,62.9,50.5,29.83,South,171,0.0,31.0,64,0.00,,---,0.00,VWS V12.07,2013-06-26 19:50:00,
2013-06-26 12:51:00,63.2,50.8,29.83,North,359,0.0,31.0,64,0.00,,---,0.00,VWS V12.07,2013-06-26 19:51:00,
2013-06-26 12:53:00,63.9,52.3,29.83,SW,226,5.0,31.0,66,0.00,,---,0.00,VWS V12.07,2013-06-26 19:53:00,
2013-06-26 12:54:00,63.9,51.5,29.83,SSW,208,1.0,31.0,64,0.00,,---,0.00,VWS V12.07,2013-06-26 19:54:00,
2013-06-26 12:55:00,63.7,51.3,29.83,SSW,206,6.0,31.0,64,0.00,,---,0.00,VWS V12.07,2013-06-26 19:55:00,
2013-06-26 12:56:00,63.5,50.3,29.83,South,181,7.0,31.0,62,0.00,,---,0.00,VWS V12.07,2013-06-26 19:56:00,
2013-06-26 12:58:00,63.4,49.3,29.83,South,184,2.0,31.0,60,0.00,,---,0.00,VWS V12.07,2013-06-26 19:58:00,
2013-06-26 12:59:00,63.4,50.6,29.84,South,185,3.0,31.0,63,0.00,,---,0.00,VWS V12.07,2013-06-26 19:59:00,
2013-06-26 13:00:00,63.4,50.2,29.84,South,185,5.0,31.0,62,0.00,,---,0.00,VWS V12.07,2013-06-26 20:00:00,
2013-06-26 13:01:00,63.1,49.9,29.84,South,189,7.0,31.0,62,0.00,,---,0.00,VWS V12.07,2013-06-26 20:01:00,
2013-06-26 13:03:00,63.1,50.3,29.84,South,181,4.0,31.0,63,0.00,,---,0.00,VWS V12.07,2013-06-26 20:03:00,
2013-06-26 13:04:00,63.1,49.9,29.84,South,185,8.0,31.0,62,0.00,,---,0.00,VWS V12.07,2013-06-26 20:04:00,
2013-06-26 13:05:00,63.1,49.9,29.84,South,185,3.0,31.0,62,0.00,,---,0.00,VWS V12.07,2013-06-26 20:05:00,
2013-06-26 13:07:00,63.2,50.4,29.84,South,184,2.0,31.0,63,0.00,,---,0.00,VWS V12.07,2013-06-26 20:07:00,
2013-06-26 13:08:00,63.2,51.2,29.84,South,184,0.0,31.0,65,0.00,,---,0.00,VWS V12.07,2013-06-26 20:08:00,
2013-06-26 13:09:00,63.4,51.0,29.84,South,184,2.0,31.0,64,0.00,,---,0.00,VWS V12.07,2013-06-26 20:09:00,
2013-06-26 13:10:00,63.4,50.2,29.84,South,184,2.0,10.0,62,0.00,,---,0.00,VWS V12.07,2013-06-26 20:10:00,
2013-06-26 13:11:00,63.5,50.3,29.84,South,184,2.0,31.0,62,0.00,,---,0.00,VWS V12.07,2013-06-26 20:11:00,
2013-06-26 13:12:00,63.5,50.7,29.84,South,185,1.0,31.0,63,0.00,,---,0.00,VWS V12.07,2013-06-26 20:12:00,
2013-06-26 13:13:00,63.7,51.3,29.84,West,261,0.0,31.0,64,0.00,,---,0.00,VWS V12.07,2013-06-26 20:13:00,
2013-06-26 13:14:00,63.9,49.8,29.84,SSW,192,2.0,31.0,60,0.00,,---,0.00,VWS V12.07,2013-06-26 20:14:00,
2013-06-26 13:16:00,63.7,48.7,29.84,South,185,5.0,31.0,58,0.00,,---,0.00,VWS V12.07,2013-06-26 20:16:00,
2013-06-26 13:17:00,63.7,48.7,29.84,South,186,5.0,31.0,58,0.00,,---,0.00,VWS V12.07,2013-06-26 20:17:00,
2013-06-26 13:18:00,63.7,49.1,29.84,South,175,2.0,31.0,59,0.00,,---,0.00,VWS V12.07,2013-06-26 20:18:00,
2013-06-26 13:19:00,63.7,49.6,29.84,South,176,4.0,31.0,60,0.00,,---,0.00,VWS V12.07,2013-06-26 20:19:00,
2013-06-26 13:20:00,63.7,49.6,29.84,South,179,6.0,9.0,60,0.00,,---,0.00,VWS V12.07,2013-06-26 20:20:00,
2013-06-26 13:21:00,63.5,49.4,29.84,South,185,5.0,31.0,60,0.00,,---,0.00,VWS V12.07,2013-06-26 20:21:00,
2013-06-26 13:22:00,63.7,48.2,29.84,South,184,8.0,31.0,57,0.00,,---,0.00,VWS V12.07,2013-06-26 20:22:00,
2013-06-26 13:23:00,63.5,48.0,29.84,South,184,8.0,31.0,57,0.00,,---,0.00,VWS V12.07,2013-06-26 20:23:00,
2013-06-26 13:25:00,63.9,48.8,29.84,SSE,161,5.0,31.0,58,0.00,,---,0.00,VWS V12.07,2013-06-26 20:25:00,
2013-06-26 13:27:00,63.7,48.7,29.84,South,176,5.0,31.0,58,0.00,,---,0.00,VWS V12.07,2013-06-26 20:27:00,
2013-06-26 13:28:00,63.5,49.4,29.84,South,185,9.0,31.0,60,0.00,,---,0.00,VWS V12.07,2013-06-26 20:28:00,
2013-06-26 13:29:00,63.4,47.9,29.84,South,186,6.0,31.0,57,0.00,,---,0.00,VWS V12.07,2013-06-26 20:29:00,
2013-06-26 13:30:00,63.2,48.7,29.86,South,184,6.0,31.0,59,0.00,,---,0.00,VWS V12.07,2013-06-26 20:30:00,
2013-06-26 13:32:00,63.4,50.2,29.86,South,185,3.0,31.0,62,0.00,,---,0.00,VWS V12.07,2013-06-26 20:32:00,
2013-06-26 13:33:00,63.5,48.9,29.86,South,176,2.0,31.0,59,0.00,,---,0.00,VWS V12.07,2013-06-26 20:33:00,
2013-06-26 13:34:00,63.5,48.9,29.86,South,176,5.0,31.0,59,0.00,,---,0.00,VWS V12.07,2013-06-26 20:34:00,
2013-06-26 13:36:00,63.9,49.3,29.86,SSW,213,3.0,31.0,59,0.00,,---,0.00,VWS V12.07,2013-06-26 20:36:00,
2013-06-26 13:37:00,64.0,49.4,29.86,West,267,2.0,31.0,59,0.00,,---,0.00,VWS V12.07,2013-06-26 20:37:00,
2013-06-26 13:38:00,64.2,50.0,29.86,West,272,5.0,31.0,60,0.00,,---,0.00,VWS V12.07,2013-06-26 20:38:00,
2013-06-26 13:39:00,64.2,48.2,29.86,NW,304,0.0,31.0,56,0.00,,---,0.00,VWS V12.07,2013-06-26 20:39:00,
2013-06-26 13:40:00,64.3,48.8,29.86,NW,304,0.0,6.0,57,0.00,,---,0.00,VWS V12.07,2013-06-26 20:40:00,
2013-06-26 13:41:00,64.7,50.1,29.86,South,182,5.0,31.0,59,0.00,,---,0.00,VWS V12.07,2013-06-26 20:41:00,
2013-06-26 13:42:00,64.8,49.7,29.86,South,175,7.0,31.0,58,0.00,,---,0.00,VWS V12.07,2013-06-26 20:42:00,
2013-06-26 13:43:00,64.8,49.2,29.86,SSE,167,5.0,31.0,57,0.00,,---,0.00,VWS V12.07,2013-06-26 20:43:00,
2013-06-26 13:44:00,64.8,49.7,29.86,South,186,8.0,31.0,58,0.00,,---,0.00,VWS V12.07,2013-06-26 20:44:00,
2013-06-26 13:45:00,64.7,47.7,29.85,South,178,4.0,31.0,54,0.00,,---,0.00,VWS V12.07,2013-06-26 20:45:00,
2013-06-26 13:47:00,64.5,49.0,29.85,South,174,5.0,31.0,57,0.00,,---,0.00,VWS V12.07,2013-06-26 20:47:00,
2013-06-26 13:49:00,65.0,48.9,29.85,SW,227,2.0,31.0,56,0.00,,---,0.00,VWS V12.07,2013-06-26 20:49:00,
2013-06-26 13:50:00,65.2,49.6,29.85,SW,227,0.0,31.0,57,0.00,,---,0.00,VWS V12.07,2013-06-26 20:50:00,
2013-06-26 13:53:00,65.5,49.9,29.85,SSW,195,0.0,31.0,57,0.00,,---,0.00,VWS V12.07,2013-06-26 20:53:00,
2013-06-26 13:54:00,65.6,50.9,29.85,West,281,3.0,31.0,59,0.00,,---,0.00,VWS V12.07,2013-06-26 20:54:00,
2013-06-26 13:55:00,65.8,51.1,29.85,NW,318,0.0,31.0,59,0.00,,---,0.00,VWS V12.07,2013-06-26 20:55:00,
2013-06-26 13:58:00,65.8,50.6,29.85,SSE,168,5.0,31.0,58,0.00,,---,0.00,VWS V12.07,2013-06-26 20:58:00,
2013-06-26 13:59:00,65.3,50.2,29.85,SSE,160,1.0,31.0,58,0.00,,---,0.00,VWS V12.07,2013-06-26 20:59:00,
2013-06-26 14:00:00,65.2,49.6,29.85,South,181,6.0,31.0,57,0.00,,---,0.00,VWS V12.07,2013-06-26 21:00:00,
2013-06-26 14:01:00,65.0,48.9,29.85,SSE,165,2.0,31.0,56,0.00,,---,0.00,VWS V12.07,2013-06-26 21:01:00,
2013-06-26 14:03:00,64.5,48.5,29.85,South,185,5.0,31.0,56,0.00,,---,0.00,VWS V12.07,2013-06-26 21:03:00,
2013-06-26 14:04:00,64.3,48.3,29.85,South,185,5.0,31.0,56,0.00,,---,0.00,VWS V12.07,2013-06-26 21:04:00,
2013-06-26 14:05:00,64.3,48.3,29.85,South,186,7.0,31.0,56,0.00,,---,0.00,VWS V12.07,2013-06-26 21:05:00,
2013-06-26 14:06:00,64.3,49.2,29.85,South,184,5.0,31.0,58,0.00,,---,0.00,VWS V12.07,2013-06-26 21:06:00,
2013-06-26 14:08:00,64.3,50.1,29.85,South,188,7.0,31.0,60,0.00,,---,0.00,VWS V12.07,2013-06-26 21:08:00,
2013-06-26 14:09:00,64.3,50.1,29.85,South,188,5.0,31.0,60,0.00,,---,0.00,VWS V12.07,2013-06-26 21:09:00,
2013-06-26 14:10:00,64.2,51.8,29.85,SSW,193,1.0,10.0,64,0.00,,---,0.00,VWS V12.07,2013-06-26 21:10:00,
2013-06-26 14:11:00,63.7,49.6,29.85,SW,215,5.0,31.0,60,0.00,,---,0.00,VWS V12.07,2013-06-26 21:11:00,
2013-06-26 14:12:00,63.2,50.0,29.85,SSW,192,8.0,31.0,62,0.00,,---,0.00,VWS V12.07,2013-06-26 21:12:00,
2013-06-26 14:13:00,63.1,49.9,29.85,South,188,2.0,31.0,62,0.00,,---,0.00,VWS V12.07,2013-06-26 21:13:00,
2013-06-26 14:14:00,63.1,49.9,29.88,South,188,0.0,31.0,62,0.00,,---,0.00,VWS V12.07,2013-06-26 21:14:00,
2013-06-26 14:16:00,62.9,52.2,29.88,South,191,0.0,31.0,68,0.00,,---,0.00,VWS V12.07,2013-06-26 21:16:00,
2013-06-26 14:18:00,62.7,52.8,29.88,WSW,239,0.0,31.0,70,0.00,,---,0.00,VWS V12.07,2013-06-26 21:18:00,
2013-06-26 14:19:00,62.7,52.4,29.88,WSW,239,0.0,31.0,69,0.00,,---,0.00,VWS V12.07,2013-06-26 21:19:00,
2013-06-26 14:20:00,62.9,53.4,29.88,WSW,239,0.0,31.0,71,0.00,,---,0.00,VWS V12.07,2013-06-26 21:20:00,
2013-06-26 14:21:00,62.9,54.5,29.88,WSW,239,0.0,31.0,74,0.00,,---,0.00,VWS V12.07,2013-06-26 21:21:00,
2013-06-26 14:23:00,63.2,54.0,29.88,WSW,239,0.0,31.0,72,0.00,,---,0.00,VWS V12.07,2013-06-26 21:23:00,
2013-06-26 14:24:00,63.4,54.6,29.88,WSW,239,0.0,31.0,73,0.00,,---,0.00,VWS V12.07,2013-06-26 21:24:00,
2013-06-26 14:25:00,63.2,54.4,29.88,WSW,239,2.0,31.0,73,0.00,,---,0.00,VWS V12.07,2013-06-26 21:25:00,
2013-06-26 14:27:00,63.2,53.3,29.88,SW,217,2.0,31.0,70,0.00,,---,0.00,VWS V12.07,2013-06-26 21:27:00,
2013-06-26 14:28:00,63.2,49.5,29.88,SSW,208,3.0,31.0,61,0.00,,---,0.00,VWS V12.07,2013-06-26 21:28:00,
2013-06-26 14:29:00,63.2,50.4,29.88,SSW,206,4.0,31.0,63,0.00,,---,0.00,VWS V12.07,2013-06-26 21:29:00,
2013-06-26 14:30:00,63.2,51.7,29.88,South,185,5.0,31.0,66,0.00,,---,0.00,VWS V12.07,2013-06-26 21:30:00,
2013-06-26 14:31:00,63.4,50.2,29.88,South,185,2.0,31.0,62,0.00,,---,0.00,VWS V12.07,2013-06-26 21:31:00,
2013-06-26 14:32:00,63.4,49.3,29.88,South,185,3.0,31.0,60,0.00,,---,0.00,VWS V12.07,2013-06-26 21:32:00,
2013-06-26 14:33:00,63.7,51.7,29.88,South,185,7.0,31.0,65,0.00,,---,0.00,VWS V12.07,2013-06-26 21:33:00,
2013-06-26 14:34:00,63.7,50.9,29.88,NW,326,7.0,31.0,63,0.00,,---,0.00,VWS V12.07,2013-06-26 21:34:00,
2013-06-26 14:35:00,63.9,50.2,29.88,NW,326,2.0,31.0,61,0.00,,---,0.00,VWS V12.07,2013-06-26 21:35:00,
2013-06-26 14:37:00,64.2,51.8,29.88,South,189,11.0,31.0,64,0.00,,---,0.00,VWS V12.07,2013-06-26 21:37:00,
2013-06-26 14:38:00,64.3,50.1,29.88,South,181,3.0,31.0,60,0.00,,---,0.00,VWS V12.07,2013-06-26 21:38:00,
2013-06-26 14:40:00,64.3,51.0,29.88,South,184,5.0,31.0,62,0.00,,---,0.00,VWS V12.07,2013-06-26 21:40:00,
2013-06-26 14:42:00,64.3,49.2,29.88,South,178,3.0,31.0,58,0.00,,---,0.00,VWS V12.07,2013-06-26 21:42:00,
2013-06-26 14:43:00,64.3,49.2,29.88,SSW,193,5.0,31.0,58,0.00,,---,0.00,VWS V12.07,2013-06-26 21:43:00,
2013-06-26 14:45:00,64.3,49.7,29.87,South,181,0.0,31.0,59,0.00,,---,0.00,VWS V12.07,2013-06-26 21:45:00,
2013-06-26 14:47:00,64.3,48.3,29.87,South,181,5.0,31.0,56,0.00,,---,0.00,VWS V12.07,2013-06-26 21:47:00,
2013-06-26 14:49:00,64.7,50.5,29.87,South,182,2.0,31.0,60,0.00,,---,0.00,VWS V12.07,2013-06-26 21:49:00,
2013-06-26 14:50:00,65.0,50.8,29.87,North,7,4.0,31.0,60,0.00,,---,0.00,VWS V12.07,2013-06-26 21:50:00,
2013-06-26 14:51:00,65.0,50.8,29.87,North,6,1.0,31.0,60,0.00,,---,0.00,VWS V12.07,2013-06-26 21:51:00,
2013-06-26 14:52:00,65.3,51.1,29.87,NNW,340,0.0,31.0,60,0.00,,---,0.00,VWS V12.07,2013-06-26 21:52:00,
2013-06-26 14:53:00,65.5,51.3,29.87,NNW,337,2.0,31.0,60,0.00,,---,0.00,VWS V12.07,2013-06-26 21:53:00,
2013-06-26 14:54:00,65.6,48.5,29.87,NNW,337,3.0,31.0,54,0.00,,---,0.00,VWS V12.07,2013-06-26 21:54:00,
2013-06-26 14:55:00,65.6,48.5,29.87,NNW,337,0.0,31.0,54,0.00,,---,0.00,VWS V12.07,2013-06-26 21:55:00,
2013-06-26 14:56:00,65.6,48.5,29.87,NNW,337,1.0,31.0,54,0.00,,---,0.00,VWS V12.07,2013-06-26 21:56:00,
2013-06-26 14:57:00,65.6,49.0,29.87,NNW,337,2.0,31.0,55,0.00,,---,0.00,VWS V12.07,2013-06-26 21:57:00,
2013-06-26 14:58:00,65.8,49.2,29.87,NNW,337,0.0,31.0,55,0.00,,---,0.00,VWS V12.07,2013-06-26 21:58:00,
2013-06-26 14:59:00,65.8,49.2,29.86,NNW,337,0.0,31.0,55,0.00,,---,0.00,VWS V12.07,2013-06-26 21:59:00,
2013-06-26 15:00:00,66.0,49.4,29.86,NNW,337,0.0,7.0,55,0.00,,---,0.00,VWS V12.07,2013-06-26 22:00:00,
2013-06-26 15:01:00,66.0,49.4,29.86,NNW,337,2.0,31.0,55,0.00,,---,0.00,VWS V12.07,2013-06-26 22:01:00,
2013-06-26 15:02:00,66.0,49.4,29.86,NNW,333,6.0,31.0,55,0.00,,---,0.00,VWS V12.07,2013-06-26 22:02:00,
2013-06-26 15:03:00,65.8,48.7,29.86,NW,313,0.0,31.0,54,0.00,,---,0.00,VWS V12.07,2013-06-26 22:03:00,
2013-06-26 15:05:00,65.8,49.2,29.86,NNW,329,0.0,31.0,55,0.00,,---,0.00,VWS V12.07,2013-06-26 22:05:00,
2013-06-26 15:06:00,65.8,49.7,29.86,NNW,329,0.0,31.0,56,0.00,,---,0.00,VWS V12.07,2013-06-26 22:06:00,
2013-06-26 15:07:00,66.0,49.9,29.86,NNW,329,0.0,31.0,56,0.00,,---,0.00,VWS V12.07,2013-06-26 22:07:00,
2013-06-26 15:08:00,66.0,49.4,29.86,NNW,329,0.0,31.0,55,0.00,,---,0.00,VWS V12.07,2013-06-26 22:08:00,
2013-06-26 15:09:00,66.0,49.4,29.86,NNW,329,0.0,31.0,55,0.00,,---,0.00,VWS V12.07,2013-06-26 22:09:00,
2013-06-26 15:10:00,66.1,49.5,29.86,NNW,329,0.0,6.0,55,0.00,,---,0.00,VWS V12.07,2013-06-26 22:10:00,
2013-06-26 15:12:00,66.3,51.1,29.86,NNW,329,0.0,31.0,58,0.00,,---,0.00,VWS V12.07,2013-06-26 22:12:00,
2013-06-26 15:13:00,66.4,51.7,29.86,NNW,329,0.0,31.0,59,0.00,,---,0.00,VWS V12.07,2013-06-26 22:13:00,
2013-06-26 15:14:00,66.4,51.7,29.86,NNW,329,0.0,31.0,59,0.00,,---,0.00,VWS V12.07,2013-06-26 22:14:00,
2013-06-26 15:17:00,66.4,51.2,29.86,NNW,329,0.0,31.0,58,0.00,,---,0.00,VWS V12.07,2013-06-26 22:17:00,
2013-06-26 15:18:00,66.4,51.7,29.86,NNW,329,0.0,31.0,59,0.00,,---,0.00,VWS V12.07,2013-06-26 22:18:00,
2013-06-26 15:19:00,66.4,51.2,29.86,NNW,329,0.0,31.0,58,0.00,,---,0.00,VWS V12.07,2013-06-26 22:19:00,
2013-06-26 15:20:00,66.4,51.2,29.86,NNW,329,0.0,2.0,58,0.00,,---,0.00,VWS V12.07,2013-06-26 22:20:00,
2013-06-26 15:22:00,66.6,51.4,29.86,NNW,329,0.0,31.0,58,0.00,,---,0.00,VWS V12.07,2013-06-26 22:22:00,
2013-06-26 15:23:00,66.6,52.3,29.86,NNW,329,0.0,31.0,60,0.00,,---,0.00,VWS V12.07,2013-06-26 22:23:00,
2013-06-26 15:24:00,66.6,52.3,29.86,NNW,329,0.0,31.0,60,0.00,,---,0.00,VWS V12.07,2013-06-26 22:24:00,
2013-06-26 15:27:00,66.4,52.6,29.86,NNW,328,0.0,31.0,61,0.00,,---,0.00,VWS V12.07,2013-06-26 22:27:00,
2013-06-26 15:28:00,66.4,51.7,29.86,North,349,4.0,31.0,59,0.00,,---,0.00,VWS V12.07,2013-06-26 22:28:00,
2013-06-26 15:29:00,66.4,52.6,29.86,North,0,3.0,31.0,61,0.00,,---,0.00,VWS V12.07,2013-06-26 22:29:00,
2013-06-26 15:30:00,66.4,52.1,29.86,North,0,0.0,6.0,60,0.00,,---,0.00,VWS V12.07,2013-06-26 22:30:00,
2013-06-26 15:32:00,66.4,52.6,29.86,North,359,0.0,31.0,61,0.00,,---,0.00,VWS V12.07,2013-06-26 22:32:00,
2013-06-26 15:33:00,66.4,52.6,29.86,North,359,0.0,31.0,61,0.00,,---,0.00,VWS V12.07,2013-06-26 22:33:00,
2013-06-26 15:34:00,66.4,53.0,29.86,North,359,0.0,31.0,62,0.00,,---,0.00,VWS V12.07,2013-06-26 22:34:00,
2013-06-26 15:35:00,66.4,53.0,29.86,North,359,2.0,31.0,62,0.00,,---,0.00,VWS V12.07,2013-06-26 22:35:00,
2013-06-26 15:38:00,66.1,52.3,29.86,NW,318,0.0,31.0,61,0.00,,---,0.00,VWS V12.07,2013-06-26 22:38:00,
2013-06-26 15:39:00,66.0,52.6,29.86,NW,318,0.0,31.0,62,0.00,,---,0.00,VWS V12.07,2013-06-26 22:39:00,
2013-06-26 15:40:00,66.1,52.7,29.86,NW,323,0.0,7.0,62,0.00,,---,0.00,VWS V12.07,2013-06-26 22:40:00,
2013-06-26 15:43:00,66.3,52.5,29.86,NW,323,0.0,31.0,61,0.00,,---,0.00,VWS V12.07,2013-06-26 22:43:00,
2013-06-26 15:44:00,66.3,51.6,29.86,NNW,343,4.0,31.0,59,0.00,,---,0.00,VWS V12.07,2013-06-26 22:44:00,
2013-06-26 15:45:00,66.3,51.6,29.86,NNW,337,2.0,31.0,59,0.00,,---,0.00,VWS V12.07,2013-06-26 22:45:00,
2013-06-26 15:48:00,66.3,51.1,29.86,NNW,339,0.0,31.0,58,0.00,,---,0.00,VWS V12.07,2013-06-26 22:48:00,
2013-06-26 15:50:00,66.4,51.2,29.86,NNW,337,0.0,31.0,58,0.00,,---,0.00,VWS V12.07,2013-06-26 22:50:00,
2013-06-26 15:51:00,66.4,51.2,29.86,NNW,337,2.0,31.0,58,0.00,,---,0.00,VWS V12.07,2013-06-26 22:51:00,
2013-06-26 15:53:00,66.3,51.6,29.86,NNW,337,0.0,31.0,59,0.00,,---,0.00,VWS V12.07,2013-06-26 22:53:00,
2013-06-26 15:54:00,66.3,51.6,29.86,NNW,337,0.0,31.0,59,0.00,,---,0.00,VWS V12.07,2013-06-26 22:54:00,
2013-06-26 15:56:00,66.1,51.4,29.86,NNW,336,0.0,31.0,59,0.00,,---,0.00,VWS V12.07,2013-06-26 22:56:00,
2013-06-26 15:58:00,66.3,52.0,29.86,NNW,337,0.0,31.0,60,0.00,,---,0.00,VWS V12.07,2013-06-26 22:58:00,
2013-06-26 15:59:00,66.4,52.1,29.86,NNW,337,0.0,31.0,60,0.00,,---,0.00,VWS V12.07,2013-06-26 22:59:00,
2013-06-26 16:00:00,66.6,52.3,29.86,NNW,337,0.0,6.0,60,0.00,,---,0.00,VWS V12.07,2013-06-26 23:00:00,
2013-06-26 16:01:00,66.8,52.0,29.86,NNW,337,0.0,31.0,59,0.00,,---,0.00,VWS V12.07,2013-06-26 23:01:00,
2013-06-26 16:02:00,66.8,52.5,29.86,NNW,337,0.0,31.0,60,0.00,,---,0.00,VWS V12.07,2013-06-26 23:02:00,
2013-06-26 16:03:00,67.1,52.8,29.86,NNW,337,0.0,31.0,60,0.00,,---,0.00,VWS V12.07,2013-06-26 23:03:00,
2013-06-26 16:04:00,67.1,52.3,29.86,NNW,337,0.0,31.0,59,0.00,,---,0.00,VWS V12.07,2013-06-26 23:04:00,
2013-06-26 16:06:00,67.3,52.5,29.86,NNW,340,0.0,31.0,59,0.00,,---,0.00,VWS V12.07,2013-06-26 23:06:00,
2013-06-26 16:07:00,67.3,52.5,29.86,NNW,340,0.0,31.0,59,0.00,,---,0.00,VWS V12.07,2013-06-26 23:07:00,
2013-06-26 16:09:00,67.4,52.1,29.86,NNW,340,0.0,31.0,58,0.00,,---,0.00,VWS V12.07,2013-06-26 23:09:00,
2013-06-26 16:10:00,67.4,52.1,29.86,NNW,340,0.0,31.0,58,0.00,,---,0.00,VWS V12.07,2013-06-26 23:10:00,
2013-06-26 16:11:00,67.6,52.3,29.86,NNW,339,2.0,31.0,58,0.00,,---,0.00,VWS V12.07,2013-06-26 23:11:00,
2013-06-26 16:12:00,67.6,52.3,29.86,NNW,339,0.0,31.0,58,0.00,,---,0.00,VWS V12.07,2013-06-26 23:12:00,
2013-06-26 16:14:00,67.6,51.8,29.86,NNW,340,0.0,31.0,57,0.00,,---,0.00,VWS V12.07,2013-06-26 23:14:00,
2013-06-26 16:15:00,67.6,52.3,29.86,NNW,340,0.0,31.0,58,0.00,,---,0.00,VWS V12.07,2013-06-26 23:15:00,
2013-06-26 16:16:00,67.6,52.3,29.86,NNW,340,0.0,31.0,58,0.00,,---,0.00,VWS V12.07,2013-06-26 23:16:00,
2013-06-26 16:17:00,67.4,50.7,29.86,NNW,344,0.0,31.0,55,0.00,,---,0.00,VWS V12.07,2013-06-26 23:17:00,
2013-06-26 16:19:00,67.4,52.1,29.86,NNW,343,0.0,31.0,58,0.00,,---,0.00,VWS V12.07,2013-06-26 23:19:00,
2013-06-26 16:20:00,67.4,51.7,29.86,NNW,343,0.0,31.0,57,0.00,,---,0.00,VWS V12.07,2013-06-26 23:20:00,
2013-06-26 16:21:00,67.4,51.7,29.86,NNW,343,1.0,31.0,57,0.00,,---,0.00,VWS V12.07,2013-06-26 23:21:00,
2013-06-26 16:22:00,67.4,52.1,29.86,NNW,343,1.0,31.0,58,0.00,,---,0.00,VWS V12.07,2013-06-26 23:22:00,
2013-06-26 16:24:00,67.6,52.3,29.86,NNW,344,0.0,31.0,58,0.00,,---,0.00,VWS V12.07,2013-06-26 23:24:00,
2013-06-26 16:25:00,67.6,52.3,29.86,NNW,344,0.0,31.0,58,0.00,,---,0.00,VWS V12.07,2013-06-26 23:25:00,
2013-06-26 16:26:00,67.6,52.3,29.86,NNW,344,0.0,31.0,58,0.00,,---,0.00,VWS V12.07,2013-06-26 23:26:00,
2013-06-26 16:27:00,67.6,51.8,29.86,NNW,344,0.0,31.0,57,0.00,,---,0.00,VWS V12.07,2013-06-26 23:27:00,
2013-06-26 16:28:00,67.6,51.8,29.86,NNW,344,1.0,31.0,57,0.00,,---,0.00,VWS V12.07,2013-06-26 23:28:00,
2013-06-26 16:30:00,67.6,51.4,29.86,NNW,344,0.0,31.0,56,0.00,,---,0.00,VWS V12.07,2013-06-26 23:30:00,
2013-06-26 16:31:00,67.6,50.9,29.86,NNW,344,0.0,31.0,55,0.00,,---,0.00,VWS V12.07,2013-06-26 23:31:00,
2013-06-26 16:32:00,67.6,50.9,29.86,NNW,344,0.0,31.0,55,0.00,,---,0.00,VWS V12.07,2013-06-26 23:32:00,
2013-06-26 16:33:00,67.4,51.2,29.86,NNW,344,0.0,31.0,56,0.00,,---,0.00,VWS V12.07,2013-06-26 23:33:00,
2013-06-26 16:35:00,67.6,51.8,29.86,NNW,344,0.0,31.0,57,0.00,,---,0.00,VWS V12.07,2013-06-26 23:35:00,
2013-06-26 16:36:00,67.6,51.8,29.86,NNW,344,0.0,31.0,57,0.00,,---,0.00,VWS V12.07,2013-06-26 23:36:00,
2013-06-26 16:37:00,67.6,51.4,29.86,NNW,344,0.0,31.0,56,0.00,,---,0.00,VWS V12.07,2013-06-26 23:37:00,
2013-06-26 16:38:00,67.6,51.4,29.86,NNW,344,0.0,31.0,56,0.00,,---,0.00,VWS V12.07,2013-06-26 23:38:00,
2013-06-26 16:40:00,67.6,51.4,29.86,NNW,344,0.0,2.0,56,0.00,,---,0.00,VWS V12.07,2013-06-26 23:40:00,
2013-06-26 16:41:00,67.6,51.4,29.86,NNW,344,0.0,31.0,56,0.00,,---,0.00,VWS V12.07,2013-06-26 23:41:00,
2013-06-26 16:42:00,67.4,51.2,29.86,NNW,344,0.0,31.0,56,0.00,,---,0.00,VWS V12.07,2013-06-26 23:42:00,
2013-06-26 16:43:00,67.4,50.7,29.86,NNW,344,0.0,31.0,55,0.00,,---,0.00,VWS V12.07,2013-06-26 23:43:00,
2013-06-26 16:44:00,67.4,50.7,29.87,NNW,344,0.0,31.0,55,0.00,,---,0.00,VWS V12.07,2013-06-26 23:44:00,
2013-06-26 16:46:00,67.4,51.2,29.87,NNW,344,0.0,31.0,56,0.00,,---,0.00,VWS V12.07,2013-06-26 23:46:00,
2013-06-26 16:47:00,67.4,51.2,29.87,NNW,344,0.0,31.0,56,0.00,,---,0.00,VWS V12.07,2013-06-26 23:47:00,
2013-06-26 16:49:00,67.4,51.7,29.87,NNW,344,0.0,31.0,57,0.00,,---,0.00,VWS V12.07,2013-06-26 23:49:00,
2013-06-26 16:50:00,67.4,51.7,29.87,NNW,344,0.0,31.0,57,0.00,,---,0.00,VWS V12.07,2013-06-26 23:50:00,
2013-06-26 16:51:00,67.4,51.7,29.87,NNW,344,0.0,31.0,57,0.00,,---,0.00,VWS V12.07,2013-06-26 23:51:00,
2013-06-26 16:53:00,67.3,51.1,29.87,NNW,344,0.0,31.0,56,0.00,,---,0.00,VWS V12.07,2013-06-26 23:53:00,
2013-06-26 16:54:00,67.3,51.1,29.87,NNW,344,0.0,31.0,56,0.00,,---,0.00,VWS V12.07,2013-06-26 23:54:00,
2013-06-26 16:56:00,67.3,50.6,29.87,NNW,344,0.0,31.0,55,0.00,,---,0.00,VWS V12.07,2013-06-26 23:56:00,
2013-06-26 16:57:00,67.1,50.9,29.87,NNW,344,0.0,31.0,56,0.00,,---,0.00,VWS V12.07,2013-06-26 23:57:00,
2013-06-26 16:59:00,67.1,53.7,29.87,NNW,344,0.0,31.0,62,0.00,,---,0.00,VWS V12.07,2013-06-26 23:59:00,
2013-06-26 17:00:00,66.9,53.5,29.87,NNW,344,0.0,31.0,62,0.00,,---,0.00,VWS V12.07,2013-06-27 00:00:00,
2013-06-26 17:01:00,66.8,53.4,29.87,NNW,344,1.0,31.0,62,0.00,,---,0.00,VWS V12.07,2013-06-27 00:01:00,
2013-06-26 17:02:00,66.4,55.1,29.87,NNW,344,1.0,31.0,67,0.00,,---,0.00,VWS V12.07,2013-06-27 00:02:00,
2013-06-26 17:04:00,66.3,55.0,29.87,NNW,344,0.0,31.0,67,0.00,,---,0.00,VWS V12.07,2013-06-27 00:04:00,
2013-06-26 17:05:00,66.1,54.0,29.87,NNW,344,0.0,31.0,65,0.00,,---,0.00,VWS V12.07,2013-06-27 00:05:00,
2013-06-26 17:06:00,66.0,53.5,29.87,NNW,344,0.0,31.0,64,0.00,,---,0.00,VWS V12.07,2013-06-27 00:06:00,
2013-06-26 17:07:00,66.0,53.9,29.87,NNW,344,0.0,31.0,65,0.00,,---,0.00,VWS V12.07,2013-06-27 00:07:00,
2013-06-26 17:09:00,65.5,53.0,29.87,NNW,344,0.0,31.0,64,0.00,,---,0.00,VWS V12.07,2013-06-27 00:09:00,
2013-06-26 17:10:00,65.3,53.2,29.87,NNW,344,0.0,31.0,65,0.00,,---,0.00,VWS V12.07,2013-06-27 00:10:00,
2013-06-26 17:11:00,65.3,53.2,29.87,NNW,344,0.0,31.0,65,0.00,,---,0.00,VWS V12.07,2013-06-27 00:11:00,
2013-06-26 17:12:00,65.3,53.7,29.87,NNW,344,0.0,31.0,66,0.00,,---,0.00,VWS V12.07,2013-06-27 00:12:00,
2013-06-26 17:13:00,65.2,53.6,29.87,NNW,344,0.0,31.0,66,0.00,,---,0.00,VWS V12.07,2013-06-27 00:13:00,
2013-06-26 17:14:00,65.0,53.4,29.88,NNW,344,0.0,31.0,66,0.00,,---,0.00,VWS V12.07,2013-06-27 00:14:00,
2013-06-26 17:16:00,64.8,53.2,29.88,NNW,344,0.0,31.0,66,0.00,,---,0.00,VWS V12.07,2013-06-27 00:16:00,
2013-06-26 17:17:00,64.7,53.1,29.88,NNW,344,0.0,31.0,66,0.00,,---,0.00,VWS V12.07,2013-06-27 00:17:00,
2013-06-26 17:18:00,64.7,53.1,29.88,NNW,344,0.0,31.0,66,0.00,,---,0.00,VWS V12.07,2013-06-27 00:18:00,
2013-06-26 17:19:00,64.5,53.3,29.88,NNW,344,0.0,31.0,67,0.00,,---,0.00,VWS V12.07,2013-06-27 00:19:00,
2013-06-26 17:20:00,64.5,53.3,29.88,NNW,344,0.0,2.0,67,0.00,,---,0.00,VWS V12.07,2013-06-27 00:20:00,
2013-06-26 17:21:00,64.3,53.1,29.88,NNW,344,0.0,31.0,67,0.00,,---,0.00,VWS V12.07,2013-06-27 00:21:00,
2013-06-26 17:22:00,64.3,53.1,29.88,NNW,344,1.0,31.0,67,0.00,,---,0.00,VWS V12.07,2013-06-27 00:22:00,
2013-06-26 17:23:00,64.2,53.0,29.88,NNW,344,0.0,31.0,67,0.00,,---,0.00,VWS V12.07,2013-06-27 00:23:00,
2013-06-26 17:25:00,63.9,53.1,29.88,NNW,344,0.0,31.0,68,0.00,,---,0.00,VWS V12.07,2013-06-27 00:25:00,
2013-06-26 17:26:00,63.9,53.5,29.88,NNW,344,0.0,31.0,69,0.00,,---,0.00,VWS V12.07,2013-06-27 00:26:00,
2013-06-26 17:27:00,63.9,53.5,29.88,NNW,344,0.0,31.0,69,0.00,,---,0.00,VWS V12.07,2013-06-27 00:27:00,
2013-06-26 17:28:00,63.9,53.5,29.88,NNW,344,0.0,31.0,69,0.00,,---,0.00,VWS V12.07,2013-06-27 00:28:00,
2013-06-26 17:30:00,63.9,53.5,29.89,NNW,344,0.0,31.0,69,0.00,,---,0.00,VWS V12.07,2013-06-27 00:30:00,
2013-06-26 17:31:00,63.7,53.3,29.89,NNW,344,0.0,31.0,69,0.00,,---,0.00,VWS V12.07,2013-06-27 00:31:00,
2013-06-26 17:32:00,63.7,53.3,29.89,NNW,344,0.0,31.0,69,0.00,,---,0.00,VWS V12.07,2013-06-27 00:32:00,
2013-06-26 17:33:00,63.7,53.0,29.89,NNW,344,0.0,31.0,68,0.00,,---,0.00,VWS V12.07,2013-06-27 00:33:00,
2013-06-26 17:34:00,63.7,53.3,29.89,NNW,344,0.0,31.0,69,0.00,,---,0.00,VWS V12.07,2013-06-27 00:34:00,
2013-06-26 17:36:00,63.7,53.0,29.89,NNW,344,0.0,31.0,68,0.00,,---,0.00,VWS V12.07,2013-06-27 00:36:00,
2013-06-26 17:37:00,63.7,53.7,29.89,NNW,344,0.0,31.0,70,0.00,,---,0.00,VWS V12.07,2013-06-27 00:37:00,
2013-06-26 17:38:00,63.7,53.0,29.89,NNW,344,0.0,31.0,68,0.00,,---,0.00,VWS V12.07,2013-06-27 00:38:00,
2013-06-26 17:39:00,63.5,52.8,29.89,NNW,344,0.0,31.0,68,0.00,,---,0.00,VWS V12.07,2013-06-27 00:39:00,
2013-06-26 17:40:00,63.5,52.4,29.89,NNW,344,0.0,2.0,67,0.00,,---,0.00,VWS V12.07,2013-06-27 00:40:00,
2013-06-26 17:41:00,63.5,52.4,29.89,NNW,344,0.0,31.0,67,0.00,,---,0.00,VWS V12.07,2013-06-27 00:41:00,
2013-06-26 17:42:00,63.4,53.1,29.89,NNW,344,0.0,31.0,69,0.00,,---,0.00,VWS V12.07,2013-06-27 00:42:00,
2013-06-26 17:44:00,63.4,53.1,29.89,NNW,344,0.0,31.0,69,0.00,,---,0.00,VWS V12.07,2013-06-27 00:44:00,
2013-06-26 17:47:00,63.4,52.3,29.89,NNW,344,0.0,31.0,67,0.00,,---,0.00,VWS V12.07,2013-06-27 00:47:00,
2013-06-26 17:48:00,63.4,52.7,29.89,NNW,344,0.0,31.0,68,0.00,,---,0.00,VWS V12.07,2013-06-27 00:48:00,
2013-06-26 17:49:00,63.4,52.7,29.89,NNW,344,0.0,31.0,68,0.00,,---,0.00,VWS V12.07,2013-06-27 00:49:00,
2013-06-26 17:50:00,63.4,52.7,29.89,NNW,344,0.0,31.0,68,0.00,,---,0.00,VWS V12.07,2013-06-27 00:50:00,
2013-06-26 17:52:00,63.4,53.1,29.89,NNW,346,0.0,31.0,69,0.00,,---,0.00,VWS V12.07,2013-06-27 00:52:00,
2013-06-26 17:53:00,63.2,51.7,29.89,NNW,346,0.0,31.0,66,0.00,,---,0.00,VWS V12.07,2013-06-27 00:53:00,
2013-06-26 17:54:00,63.2,52.5,29.89,NNW,344,1.0,31.0,68,0.00,,---,0.00,VWS V12.07,2013-06-27 00:54:00,
2013-06-26 17:55:00,63.2,51.2,29.89,North,350,0.0,31.0,65,0.00,,---,0.00,VWS V12.07,2013-06-27 00:55:00,
2013-06-26 17:57:00,63.2,52.5,29.89,North,350,0.0,31.0,68,0.00,,---,0.00,VWS V12.07,2013-06-27 00:57:00,
2013-06-26 17:59:00,63.2,52.1,29.89,North,349,1.0,31.0,67,0.00,,---,0.00,VWS V12.07,2013-06-27 00:59:00,
2013-06-26 18:00:00,63.1,52.4,29.90,North,349,0.0,31.0,68,0.00,,---,0.00,VWS V12.07,2013-06-27 01:00:00,
2013-06-26 18:02:00,63.2,52.9,29.90,North,349,0.0,31.0,69,0.00,,---,0.00,VWS V12.07,2013-06-27 01:02:00,
2013-06-26 18:03:00,63.2,52.9,29.90,North,349,0.0,31.0,69,0.00,,---,0.00,VWS V12.07,2013-06-27 01:03:00,
2013-06-26 18:04:00,63.2,52.5,29.90,North,349,0.0,31.0,68,0.00,,---,0.00,VWS V12.07,2013-06-27 01:04:00,
2013-06-26 18:05:00,63.2,51.7,29.90,North,349,0.0,31.0,66,0.00,,---,0.00,VWS V12.07,2013-06-27 01:05:00,
2013-06-26 18:06:00,63.4,52.7,29.90,North,349,0.0,31.0,68,0.00,,---,0.00,VWS V12.07,2013-06-27 01:06:00,
2013-06-26 18:07:00,63.4,53.1,29.90,North,349,0.0,31.0,69,0.00,,---,0.00,VWS V12.07,2013-06-27 01:07:00,
2013-06-26 18:08:00,63.4,53.1,29.90,North,349,0.0,31.0,69,0.00,,---,0.00,VWS V12.07,2013-06-27 01:08:00,
2013-06-26 18:09:00,63.4,52.7,29.90,North,349,2.0,31.0,68,0.00,,---,0.00,VWS V12.07,2013-06-27 01:09:00,
2013-06-26 18:10:00,63.4,52.3,29.90,North,349,0.0,31.0,67,0.00,,---,0.00,VWS V12.07,2013-06-27 01:10:00,
2013-06-26 18:11:00,63.4,52.7,29.90,North,349,0.0,31.0,68,0.00,,---,0.00,VWS V12.07,2013-06-27 01:11:00,
2013-06-26 18:13:00,63.4,53.1,29.90,North,349,0.0,31.0,69,0.00,,---,0.00,VWS V12.07,2013-06-27 01:13:00,
2013-06-26 18:14:00,63.4,53.5,29.90,North,349,0.0,31.0,70,0.00,,---,0.00,VWS V12.07,2013-06-27 01:14:00,
2013-06-26 18:15:00,63.4,51.9,29.90,NNW,347,2.0,31.0,66,0.00,,---,0.00,VWS V12.07,2013-06-27 01:15:00,
2013-06-26 18:16:00,63.4,52.3,29.90,NNW,347,0.0,31.0,67,0.00,,---,0.00,VWS V12.07,2013-06-27 01:16:00,
2013-06-26 18:17:00,63.4,52.7,29.90,NNW,347,0.0,31.0,68,0.00,,---,0.00,VWS V12.07,2013-06-27 01:17:00,
2013-06-26 18:18:00,63.2,52.5,29.90,North,359,1.0,31.0,68,0.00,,---,0.00,VWS V12.07,2013-06-27 01:18:00,
2013-06-26 18:19:00,63.1,52.0,29.90,North,359,0.0,31.0,67,0.00,,---,0.00,VWS V12.07,2013-06-27 01:19:00,
2013-06-26 18:20:00,63.1,52.0,29.90,North,359,0.0,31.0,67,0.00,,---,0.00,VWS V12.07,2013-06-27 01:20:00,
2013-06-26 18:21:00,63.1,52.8,29.90,North,359,1.0,31.0,69,0.00,,---,0.00,VWS V12.07,2013-06-27 01:21:00,
2013-06-26 18:22:00,63.1,52.4,29.90,North,359,0.0,31.0,68,0.00,,---,0.00,VWS V12.07,2013-06-27 01:22:00,
2013-06-26 18:23:00,63.1,52.0,29.90,North,359,0.0,31.0,67,0.00,,---,0.00,VWS V12.07,2013-06-27 01:23:00,
2013-06-26 18:24:00,63.1,52.0,29.90,North,359,2.0,31.0,67,0.00,,---,0.00,VWS V12.07,2013-06-27 01:24:00,
2013-06-26 18:25:00,63.1,52.4,29.90,North,359,1.0,31.0,68,0.00,,---,0.00,VWS V12.07,2013-06-27 01:25:00,
2013-06-26 18:26:00,63.1,52.8,29.90,North,359,0.0,31.0,69,0.00,,---,0.00,VWS V12.07,2013-06-27 01:26:00,
2013-06-26 18:27:00,63.1,52.8,29.90,North,359,2.0,31.0,69,0.00,,---,0.00,VWS V12.07,2013-06-27 01:27:00,
2013-06-26 18:28:00,62.9,52.6,29.90,NW,325,5.0,31.0,69,0.00,,---,0.00,VWS V12.07,2013-06-27 01:28:00,
2013-06-26 18:29:00,62.9,51.8,29.90,NW,325,0.0,31.0,67,0.00,,---,0.00,VWS V12.07,2013-06-27 01:29:00,
2013-06-26 18:30:00,62.9,52.2,29.90,NW,325,0.0,31.0,68,0.00,,---,0.00,VWS V12.07,2013-06-27 01:30:00,
2013-06-26 18:32:00,62.9,51.8,29.90,NW,325,0.0,31.0,67,0.00,,---,0.00,VWS V12.07,2013-06-27 01:32:00,
2013-06-26 18:34:00,62.9,51.8,29.90,NW,323,0.0,31.0,67,0.00,,---,0.00,VWS V12.07,2013-06-27 01:34:00,
2013-06-26 18:36:00,62.9,52.2,29.90,NW,323,0.0,31.0,68,0.00,,---,0.00,VWS V12.07,2013-06-27 01:36:00,
2013-06-26 18:38:00,62.7,52.0,29.90,NW,322,0.0,31.0,68,0.00,,---,0.00,VWS V12.07,2013-06-27 01:38:00,
2013-06-26 18:39:00,62.7,51.6,29.90,NW,322,0.0,31.0,67,0.00,,---,0.00,VWS V12.07,2013-06-27 01:39:00,
2013-06-26 18:40:00,62.7,52.0,29.90,NW,322,0.0,2.0,68,0.00,,---,0.00,VWS V12.07,2013-06-27 01:40:00,
2013-06-26 18:41:00,62.7,51.2,29.90,NW,323,0.0,31.0,66,0.00,,---,0.00,VWS V12.07,2013-06-27 01:41:00,
2013-06-26 18:43:00,62.6,51.5,29.90,NW,323,0.0,31.0,67,0.00,,---,0.00,VWS V12.07,2013-06-27 01:43:00,
2013-06-26 18:44:00,62.6,51.5,29.90,NW,323,0.0,31.0,67,0.00,,---,0.00,VWS V12.07,2013-06-27 01:44:00,
2013-06-26 18:45:00,62.6,51.9,29.91,NW,323,0.0,31.0,68,0.00,,---,0.00,VWS V12.07,2013-06-27 01:45:00,
2013-06-26 18:46:00,62.6,51.9,29.91,NW,323,0.0,31.0,68,0.00,,---,0.00,VWS V12.07,2013-06-27 01:46:00,
2013-06-26 18:49:00,62.7,52.0,29.91,NW,323,0.0,31.0,68,0.00,,---,0.00,VWS V12.07,2013-06-27 01:49:00,
2013-06-26 18:50:00,62.7,52.0,29.91,NW,323,0.0,31.0,68,0.00,,---,0.00,VWS V12.07,2013-06-27 01:50:00,
2013-06-26 18:51:00,62.7,52.0,29.91,NW,323,0.0,31.0,68,0.00,,---,0.00,VWS V12.07,2013-06-27 01:51:00,
2013-06-26 18:52:00,62.7,52.0,29.91,NW,323,0.0,31.0,68,0.00,,---,0.00,VWS V12.07,2013-06-27 01:52:00,
2013-06-26 18:55:00,62.6,51.9,29.91,NW,323,0.0,31.0,68,0.00,,---,0.00,VWS V12.07,2013-06-27 01:55:00,
2013-06-26 18:56:00,62.6,51.9,29.91,NW,323,0.0,31.0,68,0.00,,---,0.00,VWS V12.07,2013-06-27 01:56:00,
2013-06-26 18:57:00,62.6,51.9,29.91,NW,323,0.0,31.0,68,0.00,,---,0.00,VWS V12.07,2013-06-27 01:57:00,
2013-06-26 19:00:00,62.4,51.7,29.91,NW,323,0.0,31.0,68,0.00,,---,0.00,VWS V12.07,2013-06-27 02:00:00,
2013-06-26 19:01:00,62.4,51.7,29.91,NW,323,0.0,31.0,68,0.00,,---,0.00,VWS V12.07,2013-06-27 02:01:00,
2013-06-26 19:02:00,62.6,52.3,29.91,NW,323,0.0,31.0,69,0.00,,---,0.00,VWS V12.07,2013-06-27 02:02:00,
2013-06-26 19:05:00,62.6,52.3,29.91,NW,323,0.0,31.0,69,0.00,,---,0.00,VWS V12.07,2013-06-27 02:05:00,
2013-06-26 19:06:00,62.6,52.3,29.91,NW,323,0.0,31.0,69,0.00,,---,0.00,VWS V12.07,2013-06-27 02:06:00,
2013-06-26 19:07:00,62.6,52.3,29.91,NW,323,0.0,31.0,69,0.00,,---,0.00,VWS V12.07,2013-06-27 02:07:00,
2013-06-26 19:08:00,62.6,51.9,29.91,NW,323,0.0,31.0,68,0.00,,---,0.00,VWS V12.07,2013-06-27 02:08:00,
2013-06-26 19:10:00,62.6,51.9,29.91,NW,323,0.0,31.0,68,0.00,,---,0.00,VWS V12.07,2013-06-27 02:10:00,
2013-06-26 19:12:00,62.7,52.4,29.91,NW,323,0.0,31.0,69,0.00,,---,0.00,VWS V12.07,2013-06-27 02:12:00,
2013-06-26 19:14:00,62.7,52.4,29.90,NW,323,0.0,31.0,69,0.00,,---,0.00,VWS V12.07,2013-06-27 02:14:00,
2013-06-26 19:16:00,62.7,52.4,29.90,NW,323,0.0,31.0,69,0.00,,---,0.00,VWS V12.07,2013-06-27 02:16:00,
2013-06-26 19:17:00,62.7,52.4,29.90,NW,323,0.0,31.0,69,0.00,,---,0.00,VWS V12.07,2013-06-27 02:17:00,
2013-06-26 19:20:00,62.7,52.4,29.90,NW,323,0.0,31.0,69,0.00,,---,0.00,VWS V12.07,2013-06-27 02:20:00,
2013-06-26 19:21:00,62.7,52.4,29.90,NW,323,0.0,31.0,69,0.00,,---,0.00,VWS V12.07,2013-06-27 02:21:00,
2013-06-26 19:22:00,62.7,52.4,29.90,NW,323,0.0,31.0,69,0.00,,---,0.00,VWS V12.07,2013-06-27 02:22:00,
2013-06-26 19:23:00,62.7,52.0,29.90,NW,323,0.0,31.0,68,0.00,,---,0.00,VWS V12.07,2013-06-27 02:23:00,
2013-06-26 19:26:00,62.6,51.9,29.90,NW,323,0.0,31.0,68,0.00,,---,0.00,VWS V12.07,2013-06-27 02:26:00,
2013-06-26 19:27:00,62.6,51.9,29.90,NW,323,0.0,31.0,68,0.00,,---,0.00,VWS V12.07,2013-06-27 02:27:00,
2013-06-26 19:28:00,62.6,51.9,29.90,NW,323,0.0,31.0,68,0.00,,---,0.00,VWS V12.07,2013-06-27 02:28:00,
2013-06-26 19:30:00,62.6,51.9,29.90,NW,323,0.0,1.0,68,0.00,,---,0.00,VWS V12.07,2013-06-27 02:30:00,
2013-06-26 19:31:00,62.6,51.9,29.90,NW,323,0.0,31.0,68,0.00,,---,0.00,VWS V12.07,2013-06-27 02:31:00,
2013-06-26 19:32:00,62.6,51.9,29.90,NW,323,0.0,31.0,68,0.00,,---,0.00,VWS V12.07,2013-06-27 02:32:00,
2013-06-26 19:33:00,62.6,51.9,29.90,NW,323,0.0,31.0,68,0.00,,---,0.00,VWS V12.07,2013-06-27 02:33:00,
2013-06-26 19:34:00,62.6,51.9,29.90,NW,323,0.0,31.0,68,0.00,,---,0.00,VWS V12.07,2013-06-27 02:34:00,
2013-06-26 19:37:00,62.4,51.7,29.90,NW,323,0.0,31.0,68,0.00,,---,0.00,VWS V12.07,2013-06-27 02:37:00,
2013-06-26 19:38:00,62.4,51.7,29.90,NW,323,0.0,31.0,68,0.00,,---,0.00,VWS V12.07,2013-06-27 02:38:00,
2013-06-26 19:40:00,62.4,51.7,29.90,NW,323,0.0,31.0,68,0.00,,---,0.00,VWS V12.07,2013-06-27 02:40:00,
2013-06-26 19:42:00,62.4,51.7,29.90,NW,323,0.0,31.0,68,0.00,,---,0.00,VWS V12.07,2013-06-27 02:42:00,
2013-06-26 19:43:00,62.4,51.7,29.90,NW,323,0.0,31.0,68,0.00,,---,0.00,VWS V12.07,2013-06-27 02:43:00,
2013-06-26 19:44:00,62.4,51.7,29.91,NW,323,0.0,31.0,68,0.00,,---,0.00,VWS V12.07,2013-06-27 02:44:00,
2013-06-26 19:45:00,62.3,51.6,29.91,NW,323,0.0,31.0,68,0.00,,---,0.00,VWS V12.07,2013-06-27 02:45:00,
2013-06-26 19:47:00,62.3,51.6,29.91,NW,323,0.0,31.0,68,0.00,,---,0.00,VWS V12.07,2013-06-27 02:47:00,
2013-06-26 19:48:00,62.3,51.6,29.91,NW,323,0.0,31.0,68,0.00,,---,0.00,VWS V12.07,2013-06-27 02:48:00,
2013-06-26 19:49:00,62.1,51.4,29.91,NW,323,0.0,31.0,68,0.00,,---,0.00,VWS V12.07,2013-06-27 02:49:00,
2013-06-26 19:50:00,62.1,51.4,29.91,NW,323,0.0,31.0,68,0.00,,---,0.00,VWS V12.07,2013-06-27 02:50:00,
2013-06-26 19:53:00,62.0,51.3,29.91,NW,323,0.0,31.0,68,0.00,,---,0.00,VWS V12.07,2013-06-27 02:53:00,
2013-06-26 19:54:00,62.0,51.3,29.91,NW,323,0.0,31.0,68,0.00,,---,0.00,VWS V12.07,2013-06-27 02:54:00,
2013-06-26 19:55:00,62.0,51.3,29.91,NW,323,0.0,31.0,68,0.00,,---,0.00,VWS V12.07,2013-06-27 02:55:00,
2013-06-26 19:58:00,62.0,51.3,29.91,NW,323,0.0,31.0,68,0.00,,---,0.00,VWS V12.07,2013-06-27 02:58:00,
2013-06-26 19:59:00,62.0,51.3,29.91,NW,323,0.0,31.0,68,0.00,,---,0.00,VWS V12.07,2013-06-27 02:59:00,
2013-06-26 20:00:00,62.0,51.3,29.91,NW,323,0.0,31.0,68,0.00,,---,0.00,VWS V12.07,2013-06-27 03:00:00,
2013-06-26 20:03:00,61.8,51.5,29.91,NW,323,0.0,31.0,69,0.00,,---,0.00,VWS V12.07,2013-06-27 03:03:00,
2013-06-26 20:04:00,61.8,51.5,29.91,NW,323,0.0,31.0,69,0.00,,---,0.00,VWS V12.07,2013-06-27 03:04:00,
2013-06-26 20:05:00,61.8,51.5,29.91,NW,323,0.0,31.0,69,0.00,,---,0.00,VWS V12.07,2013-06-27 03:05:00,
2013-06-26 20:08:00,61.5,50.8,29.91,NW,323,0.0,31.0,68,0.00,,---,0.00,VWS V12.07,2013-06-27 03:08:00,
2013-06-26 20:09:00,61.5,50.8,29.91,NW,323,0.0,31.0,68,0.00,,---,0.00,VWS V12.07,2013-06-27 03:09:00,
2013-06-26 20:10:00,61.5,50.8,29.91,NW,323,0.0,31.0,68,0.00,,---,0.00,VWS V12.07,2013-06-27 03:10:00,
2013-06-26 20:11:00,61.5,50.8,29.91,NW,323,0.0,31.0,68,0.00,,---,0.00,VWS V12.07,2013-06-27 03:11:00,
2013-06-26 20:12:00,61.5,50.8,29.91,NW,323,0.0,31.0,68,0.00,,---,0.00,VWS V12.07,2013-06-27 03:12:00,
2013-06-26 20:14:00,61.5,50.8,29.91,NW,323,0.0,31.0,68,0.00,,---,0.00,VWS V12.07,2013-06-27 03:14:00,
2013-06-26 20:15:00,61.5,50.8,29.89,NW,323,0.0,31.0,68,0.00,,---,0.00,VWS V12.07,2013-06-27 03:15:00,
2013-06-26 20:16:00,61.3,51.1,29.89,NW,323,0.0,31.0,69,0.00,,---,0.00,VWS V12.07,2013-06-27 03:16:00,
2013-06-26 20:18:00,61.3,51.1,29.89,NW,323,0.0,31.0,69,0.00,,---,0.00,VWS V12.07,2013-06-27 03:18:00,
2013-06-26 20:19:00,61.3,51.1,29.89,NW,323,0.0,31.0,69,0.00,,---,0.00,VWS V12.07,2013-06-27 03:19:00,
2013-06-26 20:20:00,61.2,51.0,29.89,NW,323,0.0,31.0,69,0.00,,---,0.00,VWS V12.07,2013-06-27 03:20:00,
2013-06-26 20:22:00,61.2,51.0,29.89,NW,323,0.0,31.0,69,0.00,,---,0.00,VWS V12.07,2013-06-27 03:22:00,
2013-06-26 20:23:00,61.2,51.0,29.89,NW,323,0.0,31.0,69,0.00,,---,0.00,VWS V12.07,2013-06-27 03:23:00,
2013-06-26 20:24:00,61.0,50.8,29.89,NW,323,0.0,31.0,69,0.00,,---,0.00,VWS V12.07,2013-06-27 03:24:00,
2013-06-26 20:25:00,61.0,50.8,29.89,NW,323,0.0,31.0,69,0.00,,---,0.00,VWS V12.07,2013-06-27 03:25:00,
2013-06-26 20:26:00,61.0,50.8,29.89,NW,323,0.0,31.0,69,0.00,,---,0.00,VWS V12.07,2013-06-27 03:26:00,
2013-06-26 20:27:00,61.0,50.8,29.89,NW,323,0.0,31.0,69,0.00,,---,0.00,VWS V12.07,2013-06-27 03:27:00,
2013-06-26 20:28:00,60.9,50.7,29.89,NW,323,0.0,31.0,69,0.00,,---,0.00,VWS V12.07,2013-06-27 03:28:00,
2013-06-26 20:29:00,60.9,50.7,29.90,NW,323,0.0,31.0,69,0.00,,---,0.00,VWS V12.07,2013-06-27 03:29:00,
2013-06-26 20:30:00,60.9,50.7,29.90,NW,323,0.0,0.0,69,0.00,,---,0.00,VWS V12.07,2013-06-27 03:30:00,
2013-06-26 20:31:00,60.7,50.5,29.90,NW,323,0.0,31.0,69,0.00,,---,0.00,VWS V12.07,2013-06-27 03:31:00,
2013-06-26 20:32:00,60.7,50.9,29.90,NW,323,0.0,31.0,70,0.00,,---,0.00,VWS V12.07,2013-06-27 03:32:00,
2013-06-26 20:33:00,60.7,50.9,29.90,NW,323,0.0,31.0,70,0.00,,---,0.00,VWS V12.07,2013-06-27 03:33:00,
2013-06-26 20:35:00,60.5,50.7,29.90,NW,323,0.0,31.0,70,0.00,,---,0.00,VWS V12.07,2013-06-27 03:35:00,
2013-06-26 20:36:00,60.5,50.7,29.90,NW,323,0.0,31.0,70,0.00,,---,0.00,VWS V12.07,2013-06-27 03:36:00,
2013-06-26 20:37:00,60.5,50.7,29.90,NW,323,0.0,31.0,70,0.00,,---,0.00,VWS V12.07,2013-06-27 03:37:00,
2013-06-26 20:38:00,60.5,51.1,29.90,NW,323,0.0,31.0,71,0.00,,---,0.00,VWS V12.07,2013-06-27 03:38:00,
2013-06-26 20:40:00,60.4,50.6,29.90,NW,323,0.0,31.0,70,0.00,,---,0.00,VWS V12.07,2013-06-27 03:40:00,
2013-06-26 20:41:00,60.4,51.0,29.90,NW,323,0.0,31.0,71,0.00,,---,0.00,VWS V12.07,2013-06-27 03:41:00,
2013-06-26 20:42:00,60.4,51.0,29.90,NW,323,0.0,31.0,71,0.00,,---,0.00,VWS V12.07,2013-06-27 03:42:00,
2013-06-26 20:44:00,60.4,51.0,29.90,NW,323,0.0,31.0,71,0.00,,---,0.00,VWS V12.07,2013-06-27 03:44:00,
2013-06-26 20:46:00,60.2,50.8,29.90,NW,323,0.0,31.0,71,0.00,,---,0.00,VWS V12.07,2013-06-27 03:46:00,
2013-06-26 20:47:00,60.2,50.8,29.90,NW,323,0.0,31.0,71,0.00,,---,0.00,VWS V12.07,2013-06-27 03:47:00,
2013-06-26 20:48:00,60.2,50.8,29.90,NW,323,0.0,31.0,71,0.00,,---,0.00,VWS V12.07,2013-06-27 03:48:00,
2013-06-26 20:49:00,60.2,51.2,29.90,NW,323,0.0,31.0,72,0.00,,---,0.00,VWS V12.07,2013-06-27 03:49:00,
2013-06-26 20:50:00,60.1,51.1,29.90,NW,323,0.0,0.0,72,0.00,,---,0.00,VWS V12.07,2013-06-27 03:50:00,
2013-06-26 20:51:00,60.1,51.1,29.90,NW,323,0.0,31.0,72,0.00,,---,0.00,VWS V12.07,2013-06-27 03:51:00,
2013-06-26 20:52:00,60.1,51.1,29.90,NW,323,0.0,31.0,72,0.00,,---,0.00,VWS V12.07,2013-06-27 03:52:00,
2013-06-26 20:53:00,60.1,51.1,29.90,NW,323,0.0,31.0,72,0.00,,---,0.00,VWS V12.07,2013-06-27 03:53:00,
2013-06-26 20:54:00,59.9,50.9,29.90,NW,323,0.0,31.0,72,0.00,,---,0.00,VWS V12.07,2013-06-27 03:54:00,
2013-06-26 20:57:00,59.8,50.8,29.90,NW,323,0.0,31.0,72,0.00,,---,0.00,VWS V12.07,2013-06-27 03:57:00,
2013-06-26 20:58:00,59.8,50.8,29.90,NW,323,0.0,31.0,72,0.00,,---,0.00,VWS V12.07,2013-06-27 03:58:00,
2013-06-26 20:59:00,59.8,51.1,29.90,NW,323,0.0,31.0,73,0.00,,---,0.00,VWS V12.07,2013-06-27 03:59:00,
2013-06-26 21:00:00,59.8,51.1,29.90,NW,323,0.0,0.0,73,0.00,,---,0.00,VWS V12.07,2013-06-27 04:00:00,
2013-06-26 21:01:00,59.8,51.1,29.90,NW,323,0.0,31.0,73,0.00,,---,0.00,VWS V12.07,2013-06-27 04:01:00,
2013-06-26 21:06:00,59.5,50.8,29.90,NW,323,0.0,31.0,73,0.00,,---,0.00,VWS V12.07,2013-06-27 04:06:00,
2013-06-26 21:07:00,59.5,50.8,29.90,NW,323,0.0,31.0,73,0.00,,---,0.00,VWS V12.07,2013-06-27 04:07:00,
2013-06-26 21:10:00,59.2,50.6,29.90,NW,323,0.0,0.0,73,0.00,,---,0.00,VWS V12.07,2013-06-27 04:10:00,
2013-06-26 21:11:00,59.2,50.9,29.90,NW,323,0.0,31.0,74,0.00,,---,0.00,VWS V12.07,2013-06-27 04:11:00,
2013-06-26 21:12:00,59.2,50.9,29.90,NW,323,0.0,31.0,74,0.00,,---,0.00,VWS V12.07,2013-06-27 04:12:00,
2013-06-26 21:16:00,58.7,50.8,29.91,NW,323,0.0,31.0,75,0.00,,---,0.00,VWS V12.07,2013-06-27 04:16:00,
2013-06-26 21:17:00,58.6,50.7,29.91,NW,323,0.0,31.0,75,0.00,,---,0.00,VWS V12.07,2013-06-27 04:17:00,
2013-06-26 21:20:00,58.1,50.2,29.91,NW,323,0.0,0.0,75,0.00,,---,0.00,VWS V12.07,2013-06-27 04:20:00,
2013-06-26 21:21:00,58.0,50.1,29.91,NW,323,0.0,31.0,75,0.00,,---,0.00,VWS V12.07,2013-06-27 04:21:00,
2013-06-26 21:22:00,58.0,50.1,29.91,NW,323,0.0,31.0,75,0.00,,---,0.00,VWS V12.07,2013-06-27 04:22:00,
2013-06-26 21:26:00,57.3,50.2,29.91,NW,323,0.0,31.0,77,0.00,,---,0.00,VWS V12.07,2013-06-27 04:26:00,
2013-06-26 21:27:00,57.3,50.2,29.91,NW,323,0.0,31.0,77,0.00,,---,0.00,VWS V12.07,2013-06-27 04:27:00,
2013-06-26 21:28:00,57.3,50.2,29.91,NW,323,0.0,31.0,77,0.00,,---,0.00,VWS V12.07,2013-06-27 04:28:00,
2013-06-26 21:30:00,57.0,49.9,29.92,NW,323,0.0,0.0,77,0.00,,---,0.00,VWS V12.07,2013-06-27 04:30:00,
2013-06-26 21:31:00,56.9,49.8,29.92,NW,323,0.0,31.0,77,0.00,,---,0.00,VWS V12.07,2013-06-27 04:31:00,
2013-06-26 21:32:00,56.9,49.8,29.92,NW,323,0.0,31.0,77,0.00,,---,0.00,VWS V12.07,2013-06-27 04:32:00,
2013-06-26 21:33:00,56.9,49.8,29.92,NW,323,0.0,31.0,77,0.00,,---,0.00,VWS V12.07,2013-06-27 04:33:00,
2013-06-26 21:36:00,56.7,49.6,29.92,NW,323,0.0,31.0,77,0.00,,---,0.00,VWS V12.07,2013-06-27 04:36:00,
2013-06-26 21:37:00,56.7,49.6,29.92,NW,323,0.0,31.0,77,0.00,,---,0.00,VWS V12.07,2013-06-27 04:37:00,
2013-06-26 21:38:00,56.7,49.6,29.92,NW,323,0.0,31.0,77,0.00,,---,0.00,VWS V12.07,2013-06-27 04:38:00,
2013-06-26 21:39:00,56.6,49.5,29.92,NW,323,0.0,31.0,77,0.00,,---,0.00,VWS V12.07,2013-06-27 04:39:00,
2013-06-26 21:40:00,56.6,49.5,29.92,NW,323,0.0,0.0,77,0.00,,---,0.00,VWS V12.07,2013-06-27 04:40:00,
2013-06-26 21:42:00,56.6,49.5,29.92,NW,323,0.0,31.0,77,0.00,,---,0.00,VWS V12.07,2013-06-27 04:42:00,
2013-06-26 21:43:00,56.6,49.5,29.92,NW,323,0.0,31.0,77,0.00,,---,0.00,VWS V12.07,2013-06-27 04:43:00,
2013-06-26 21:44:00,56.6,49.5,29.93,NW,323,0.0,31.0,77,0.00,,---,0.00,VWS V12.07,2013-06-27 04:44:00,
2013-06-26 21:47:00,56.5,49.4,29.93,NW,323,0.0,31.0,77,0.00,,---,0.00,VWS V12.07,2013-06-27 04:47:00,
2013-06-26 21:48:00,56.5,49.4,29.93,NW,323,0.0,31.0,77,0.00,,---,0.00,VWS V12.07,2013-06-27 04:48:00,
2013-06-26 21:49:00,56.5,49.4,29.93,NW,323,0.0,31.0,77,0.00,,---,0.00,VWS V12.07,2013-06-27 04:49:00,
2013-06-26 21:50:00,56.3,49.2,29.93,NW,323,0.0,0.0,77,0.00,,---,0.00,VWS V12.07,2013-06-27 04:50:00,
2013-06-26 21:52:00,56.3,49.2,29.93,NW,323,0.0,31.0,77,0.00,,---,0.00,VWS V12.07,2013-06-27 04:52:00,
2013-06-26 21:53:00,56.3,49.2,29.93,NW,323,0.0,31.0,77,0.00,,---,0.00,VWS V12.07,2013-06-27 04:53:00,
2013-06-26 21:54:00,56.3,49.2,29.93,NW,323,0.0,31.0,77,0.00,,---,0.00,VWS V12.07,2013-06-27 04:54:00,
2013-06-26 21:57:00,56.2,49.1,29.93,NW,323,0.0,31.0,77,0.00,,---,0.00,VWS V12.07,2013-06-27 04:57:00,
2013-06-26 21:59:00,56.0,48.9,29.93,NW,323,0.0,31.0,77,0.00,,---,0.00,VWS V12.07,2013-06-27 04:59:00,
2013-06-26 22:00:00,56.0,48.9,29.94,NW,323,0.0,31.0,77,0.00,,---,0.00,VWS V12.07,2013-06-27 05:00:00,
2013-06-26 22:02:00,56.0,49.2,29.94,NW,323,0.0,31.0,78,0.00,,---,0.00,VWS V12.07,2013-06-27 05:02:00,
2013-06-26 22:04:00,55.9,49.2,29.94,NW,323,0.0,31.0,78,0.00,,---,0.00,VWS V12.07,2013-06-27 05:04:00,
2013-06-26 22:05:00,55.9,49.2,29.94,NW,323,0.0,31.0,78,0.00,,---,0.00,VWS V12.07,2013-06-27 05:05:00,
2013-06-26 22:07:00,55.7,49.0,29.94,NW,323,0.0,31.0,78,0.00,,---,0.00,VWS V12.07,2013-06-27 05:07:00,
2013-06-26 22:09:00,55.7,49.0,29.94,NW,323,0.0,31.0,78,0.00,,---,0.00,VWS V12.07,2013-06-27 05:09:00,
2013-06-26 22:10:00,55.6,48.9,29.94,NW,323,0.0,31.0,78,0.00,,---,0.00,VWS V12.07,2013-06-27 05:10:00,
2013-06-26 22:13:00,55.6,48.9,29.94,NW,323,0.0,31.0,78,0.00,,---,0.00,VWS V12.07,2013-06-27 05:13:00,
2013-06-26 22:14:00,55.6,48.9,29.93,NW,323,0.0,31.0,78,0.00,,---,0.00,VWS V12.07,2013-06-27 05:14:00,
2013-06-26 22:15:00,55.6,48.9,29.93,NW,323,0.0,31.0,78,0.00,,---,0.00,VWS V12.07,2013-06-27 05:15:00,
2013-06-26 22:16:00,55.6,48.9,29.93,NW,323,0.0,31.0,78,0.00,,---,0.00,VWS V12.07,2013-06-27 05:16:00,
2013-06-26 22:18:00,55.4,48.7,29.93,NW,323,0.0,31.0,78,0.00,,---,0.00,VWS V12.07,2013-06-27 05:18:00,
2013-06-26 22:20:00,55.4,48.7,29.93,NW,323,0.0,31.0,78,0.00,,---,0.00,VWS V12.07,2013-06-27 05:20:00,
2013-06-26 22:21:00,55.4,48.7,29.93,NW,323,0.0,31.0,78,0.00,,---,0.00,VWS V12.07,2013-06-27 05:21:00,
2013-06-26 22:23:00,55.4,48.7,29.93,NW,323,0.0,31.0,78,0.00,,---,0.00,VWS V12.07,2013-06-27 05:23:00,
2013-06-26 22:25:00,55.4,48.7,29.93,NW,323,0.0,31.0,78,0.00,,---,0.00,VWS V12.07,2013-06-27 05:25:00,
2013-06-26 22:26:00,55.3,48.6,29.93,NW,323,0.0,31.0,78,0.00,,---,0.00,VWS V12.07,2013-06-27 05:26:00,
2013-06-26 22:27:00,55.3,48.6,29.93,NW,323,0.0,31.0,78,0.00,,---,0.00,VWS V12.07,2013-06-27 05:27:00,
2013-06-26 22:29:00,55.3,48.6,29.93,NW,323,0.0,31.0,78,0.00,,---,0.00,VWS V12.07,2013-06-27 05:29:00,
2013-06-26 22:30:00,55.3,48.6,29.95,NW,323,0.0,0.0,78,0.00,,---,0.00,VWS V12.07,2013-06-27 05:30:00,
2013-06-26 22:31:00,55.3,48.6,29.95,NW,323,0.0,31.0,78,0.00,,---,0.00,VWS V12.07,2013-06-27 05:31:00,
2013-06-26 22:32:00,55.3,48.6,29.95,NW,323,0.0,31.0,78,0.00,,---,0.00,VWS V12.07,2013-06-27 05:32:00,
2013-06-26 22:34:00,55.3,48.9,29.95,NW,323,0.0,31.0,79,0.00,,---,0.00,VWS V12.07,2013-06-27 05:34:00,
2013-06-26 22:36:00,55.1,48.7,29.95,NW,323,0.0,31.0,79,0.00,,---,0.00,VWS V12.07,2013-06-27 05:36:00,
2013-06-26 22:39:00,55.1,48.7,29.95,NW,323,0.0,31.0,79,0.00,,---,0.00,VWS V12.07,2013-06-27 05:39:00,
2013-06-26 22:40:00,55.1,48.7,29.95,NW,323,0.0,0.0,79,0.00,,---,0.00,VWS V12.07,2013-06-27 05:40:00,
2013-06-26 22:41:00,55.0,48.6,29.95,NW,323,0.0,31.0,79,0.00,,---,0.00,VWS V12.07,2013-06-27 05:41:00,
2013-06-26 22:43:00,55.0,48.6,29.95,NW,323,0.0,31.0,79,0.00,,---,0.00,VWS V12.07,2013-06-27 05:43:00,
2013-06-26 22:44:00,54.8,48.4,29.95,NW,323,0.0,31.0,79,0.00,,---,0.00,VWS V12.07,2013-06-27 05:44:00,
2013-06-26 22:46:00,54.8,48.4,29.95,NW,323,0.0,31.0,79,0.00,,---,0.00,VWS V12.07,2013-06-27 05:46:00,
2013-06-26 22:47:00,54.8,48.4,29.95,NW,323,0.0,31.0,79,0.00,,---,0.00,VWS V12.07,2013-06-27 05:47:00,
2013-06-26 22:48:00,54.7,48.3,29.95,NW,323,0.0,31.0,79,0.00,,---,0.00,VWS V12.07,2013-06-27 05:48:00,
2013-06-26 22:49:00,54.7,48.3,29.95,NW,323,0.0,31.0,79,0.00,,---,0.00,VWS V12.07,2013-06-27 05:49:00,
2013-06-26 22:50:00,54.7,48.3,29.95,NW,323,0.0,0.0,79,0.00,,---,0.00,VWS V12.07,2013-06-27 05:50:00,
2013-06-26 22:52:00,54.7,48.3,29.95,NW,323,0.0,31.0,79,0.00,,---,0.00,VWS V12.07,2013-06-27 05:52:00,
2013-06-26 22:53:00,54.5,48.1,29.95,NW,323,0.0,31.0,79,0.00,,---,0.00,VWS V12.07,2013-06-27 05:53:00,
2013-06-26 22:54:00,54.4,47.7,29.95,NW,323,0.0,31.0,78,0.00,,---,0.00,VWS V12.07,2013-06-27 05:54:00,
2013-06-26 22:55:00,54.4,47.7,29.95,NW,323,0.0,31.0,78,0.00,,---,0.00,VWS V12.07,2013-06-27 05:55:00,
2013-06-26 22:57:00,54.2,47.5,29.95,NW,323,0.0,31.0,78,0.00,,---,0.00,VWS V12.07,2013-06-27 05:57:00,
2013-06-26 22:58:00,54.1,47.4,29.95,NW,323,0.0,31.0,78,0.00,,---,0.00,VWS V12.07,2013-06-27 05:58:00,
2013-06-26 23:00:00,53.9,47.2,29.95,NW,323,0.0,31.0,78,0.00,,---,0.00,VWS V12.07,2013-06-27 06:00:00,
2013-06-26 23:02:00,53.8,47.1,29.95,NW,323,0.0,31.0,78,0.00,,---,0.00,VWS V12.07,2013-06-27 06:02:00,
2013-06-26 23:03:00,53.6,46.9,29.95,NW,323,0.0,31.0,78,0.00,,---,0.00,VWS V12.07,2013-06-27 06:03:00,
2013-06-26 23:05:00,53.5,46.8,29.95,NW,323,0.0,31.0,78,0.00,,---,0.00,VWS V12.07,2013-06-27 06:05:00,
2013-06-26 23:06:00,53.5,46.8,29.95,NW,323,0.0,31.0,78,0.00,,---,0.00,VWS V12.07,2013-06-27 06:06:00,
2013-06-26 23:07:00,53.5,47.2,29.95,NW,323,0.0,31.0,79,0.00,,---,0.00,VWS V12.07,2013-06-27 06:07:00,
2013-06-26 23:08:00,53.5,47.2,29.95,NW,323,0.0,31.0,79,0.00,,---,0.00,VWS V12.07,2013-06-27 06:08:00,
2013-06-26 23:10:00,53.3,47.0,29.95,NW,323,0.0,0.0,79,0.00,,---,0.00,VWS V12.07,2013-06-27 06:10:00,
2013-06-26 23:11:00,53.3,47.0,29.95,NW,323,0.0,31.0,79,0.00,,---,0.00,VWS V12.07,2013-06-27 06:11:00,
2013-06-26 23:13:00,53.3,47.0,29.95,NW,323,0.0,31.0,79,0.00,,---,0.00,VWS V12.07,2013-06-27 06:13:00,
2013-06-26 23:14:00,53.2,46.9,29.95,NW,323,0.0,31.0,79,0.00,,---,0.00,VWS V12.07,2013-06-27 06:14:00,
2013-06-26 23:16:00,53.2,46.9,29.95,NW,323,0.0,31.0,79,0.00,,---,0.00,VWS V12.07,2013-06-27 06:16:00,
2013-06-26 23:18:00,53.1,46.8,29.95,NW,323,0.0,31.0,79,0.00,,---,0.00,VWS V12.07,2013-06-27 06:18:00,
2013-06-26 23:19:00,52.9,46.6,29.95,NW,323,0.0,31.0,79,0.00,,---,0.00,VWS V12.07,2013-06-27 06:19:00,
2013-06-26 23:20:00,52.9,46.6,29.95,NW,323,0.0,31.0,79,0.00,,---,0.00,VWS V12.07,2013-06-27 06:20:00,
2013-06-26 23:21:00,52.8,46.5,29.95,NW,323,0.0,31.0,79,0.00,,---,0.00,VWS V12.07,2013-06-27 06:21:00,
2013-06-26 23:22:00,52.6,46.3,29.95,NW,323,0.0,31.0,79,0.00,,---,0.00,VWS V12.07,2013-06-27 06:22:00,
2013-06-26 23:23:00,52.6,46.3,29.95,NW,323,0.0,31.0,79,0.00,,---,0.00,VWS V12.07,2013-06-27 06:23:00,
2013-06-26 23:24:00,52.6,46.3,29.95,NW,323,0.0,31.0,79,0.00,,---,0.00,VWS V12.07,2013-06-27 06:24:00,
2013-06-26 23:25:00,52.5,46.2,29.95,NW,323,0.0,31.0,79,0.00,,---,0.00,VWS V12.07,2013-06-27 06:25:00,
2013-06-26 23:27:00,52.3,46.0,29.95,NW,323,0.0,31.0,79,0.00,,---,0.00,VWS V12.07,2013-06-27 06:27:00,
2013-06-26 23:28:00,52.3,46.0,29.95,NW,323,0.0,31.0,79,0.00,,---,0.00,VWS V12.07,2013-06-27 06:28:00,
2013-06-26 23:29:00,52.3,46.0,29.95,NW,323,0.0,31.0,79,0.00,,---,0.00,VWS V12.07,2013-06-27 06:29:00,
2013-06-26 23:30:00,52.2,45.9,29.96,NW,323,0.0,31.0,79,0.00,,---,0.00,VWS V12.07,2013-06-27 06:30:00,
2013-06-26 23:32:00,52.2,45.9,29.96,NW,323,0.0,31.0,79,0.00,,---,0.00,VWS V12.07,2013-06-27 06:32:00,
2013-06-26 23:33:00,52.0,45.7,29.96,NW,323,0.0,31.0,79,0.00,,---,0.00,VWS V12.07,2013-06-27 06:33:00,
2013-06-26 23:34:00,52.0,45.7,29.96,NW,323,0.0,31.0,79,0.00,,---,0.00,VWS V12.07,2013-06-27 06:34:00,
2013-06-26 23:35:00,52.0,45.7,29.96,NW,323,0.0,31.0,79,0.00,,---,0.00,VWS V12.07,2013-06-27 06:35:00,
2013-06-26 23:37:00,51.9,45.6,29.96,NW,323,0.0,31.0,79,0.00,,---,0.00,VWS V12.07,2013-06-27 06:37:00,
2013-06-26 23:38:00,51.9,45.6,29.96,NW,323,0.0,31.0,79,0.00,,---,0.00,VWS V12.07,2013-06-27 06:38:00,
2013-06-26 23:39:00,51.9,45.6,29.96,NW,323,0.0,31.0,79,0.00,,---,0.00,VWS V12.07,2013-06-27 06:39:00,
2013-06-26 23:40:00,51.7,45.7,29.96,NW,323,0.0,31.0,80,0.00,,---,0.00,VWS V12.07,2013-06-27 06:40:00,
2013-06-26 23:43:00,51.6,45.6,29.96,NW,323,0.0,31.0,80,0.00,,---,0.00,VWS V12.07,2013-06-27 06:43:00,
2013-06-26 23:44:00,51.4,45.5,29.96,NW,323,0.0,31.0,80,0.00,,---,0.00,VWS V12.07,2013-06-27 06:44:00,
2013-06-26 23:45:00,51.4,45.5,29.96,NW,323,0.0,31.0,80,0.00,,---,0.00,VWS V12.07,2013-06-27 06:45:00,
2013-06-26 23:48:00,51.3,45.3,29.96,NW,323,0.0,31.0,80,0.00,,---,0.00,VWS V12.07,2013-06-27 06:48:00,
2013-06-26 23:49:00,51.3,45.3,29.96,NW,323,0.0,31.0,80,0.00,,---,0.00,VWS V12.07,2013-06-27 06:49:00,
2013-06-26 23:50:00,51.1,45.2,29.96,NW,323,0.0,31.0,80,0.00,,---,0.00,VWS V12.07,2013-06-27 06:50:00,
2013-06-26 23:53:00,50.8,44.9,29.96,NW,323,0.0,31.0,80,0.00,,---,0.00,VWS V12.07,2013-06-27 06:53:00,
2013-06-26 23:54:00,50.8,44.9,29.96,NW,323,0.0,31.0,80,0.00,,---,0.00,VWS V12.07,2013-06-27 06:54:00,
2013-06-26 23:55:00,50.8,44.9,29.96,NW,323,0.0,31.0,80,0.00,,---,0.00,VWS V12.07,2013-06-27 06:55:00,
2013-06-26 23:58:00,50.5,44.6,29.96,NW,323,0.0,31.0,80,0.00,,---,0.00,VWS V12.07,2013-06-27 06:58:00,
2013-06-26 23:59:00,50.5,44.6,29.96,NW,323,0.0,31.0,80,0.00,,---,0.00,VWS V12.07,2013-06-27 06:59:00,